Darstellungsparameter: Aktuell verwendete Einstellungen:
Skalierung der Graphiken ... ?
xyx+y,   Skalierungsfaktor:      Skalierung: Modus: x, Faktor: 1
Darstellungszeitraum ... ?
Vom - - bis: - -   Zeitraum: 22.09.2010 - 05.10.2010
Min/Max/Avg-Anzeige ... ?
Zeige MMA aktuell
Zeige MMA Monat
Zeige MMA alles
Zeige --A aktuell
Zeige --A Monat
Zeige --A alles
Keine MMA-Anzeige
MMA:
Average (ber die Originaldaten)
MMA-Basis: 22.09.2010 - 05.10.2010
Quicknavigation für Darstellung... ?
Tage:      1T, 2T, 3T, 5T -1T -2T -3T -5T +1T +2T +3T +5T
Wochen: 1W, 2W, 3W -1W -2W -3W +1W +2W +3W
Monate: 1M, 3M, 6M -1M -3M -6M +1M +3M +6M
Jahre:    1J, 3J, 5J, 10J -1J -3J -5J -10J +1J +3J +5J +10J
Nutze für die Darstellung ... ?
Originaldaten oder Mittelwerte auf ...
Stundenbasis Tagesbasis Wochenbasis
Monatsbasis Jahresbasis      Datenbasis: Original-Daten
Darstellen als:
Statistik (Auto) Statistik J:M      Darstellung:
Zur Graphik,    zurück zur Übersicht aller Sensoren.
 
Tabellarische Datenbersicht: ?
 
Sensor: Nr:Datum:Temp:Abs-Feuchte:Windchill:Wind:
Aussen-T/F 1 22-09-2010 00:06:01 12.5 C 8.69 g/m*3 12.5 C 0 km/h
2 22-09-2010 00:18:01 12.3 C 8.58 g/m*3 12.3 C 0 km/h
3 22-09-2010 00:30:01 12.2 C 8.52 g/m*3 12.2 C 0 km/h
4 22-09-2010 00:42:01 12.1 C 8.47 g/m*3 12.1 C 0 km/h
5 22-09-2010 00:54:01 11.9 C 8.47 g/m*3 11.9 C 0 km/h
6 22-09-2010 01:06:02 11.8 C 8.53 g/m*3 11.8 C 0 km/h
7 22-09-2010 01:18:02 11.6 C 8.42 g/m*3 11.6 C 0 km/h
8 22-09-2010 01:30:02 11.5 C 8.47 g/m*3 11.5 C 0 km/h
9 22-09-2010 01:42:02 11.3 C 8.26 g/m*3 11.3 C 0 km/h
10 22-09-2010 01:54:02 11.3 C 8.36 g/m*3 11.3 C 0 km/h
11 22-09-2010 02:06:02 11 C 8.21 g/m*3 11 C 0 km/h
12 22-09-2010 02:18:02 10.9 C 8.16 g/m*3 10.9 C 0 km/h
13 22-09-2010 02:30:02 10.8 C 8.2 g/m*3 10.8 C 0 km/h
14 22-09-2010 02:42:02 10.7 C 8.15 g/m*3 10.7 C 0 km/h
15 22-09-2010 02:54:02 10.5 C 8.05 g/m*3 10.5 C 0 km/h
16 22-09-2010 03:06:02 10.4 C 8 g/m*3 10.4 C 0 km/h
17 22-09-2010 03:18:02 10.4 C 8 g/m*3 10.4 C 0 km/h
18 22-09-2010 03:30:02 10.3 C 8.04 g/m*3 10.3 C 0 km/h
19 22-09-2010 03:42:02 10.1 C 7.94 g/m*3 10.1 C 0 km/h
20 22-09-2010 03:54:02 9.9 C 8.03 g/m*3 9.9 C 0 km/h
21 22-09-2010 04:06:02 9.9 C 8.03 g/m*3 9.9 C 0 km/h
22 22-09-2010 04:18:02 9.7 C 7.93 g/m*3 9.7 C 0 km/h
23 22-09-2010 04:30:02 9.6 C 7.79 g/m*3 9.6 C 0 km/h
24 22-09-2010 04:42:02 9.6 C 7.88 g/m*3 9.6 C 0 km/h
25 22-09-2010 04:54:02 9.8 C 8.07 g/m*3 9.8 C 0 km/h
Sensor: Nr:Datum:Temp:Abs-Feuchte:Windchill:Wind:
Aussen-T/F 26 22-09-2010 05:06:02 9.8 C 8.07 g/m*3 9.8 C 0 km/h
27 22-09-2010 05:18:02 9.9 C 8.22 g/m*3 9.9 C 0 km/h
28 22-09-2010 05:30:03 9.9 C 8.22 g/m*3 9.9 C 0 km/h
29 22-09-2010 05:42:03 9.9 C 8.22 g/m*3 9.9 C 0 km/h
30 22-09-2010 05:54:03 9.7 C 8.02 g/m*3 9.7 C 0 km/h
31 22-09-2010 06:06:03 9.8 C 8.16 g/m*3 9.8 C 0 km/h
32 22-09-2010 06:18:03 9.8 C 8.16 g/m*3 9.8 C 0 km/h
33 22-09-2010 06:30:03 9.8 C 8.16 g/m*3 9.8 C 0 km/h
34 22-09-2010 06:42:03 9.7 C 8.11 g/m*3 9.7 C 0 km/h
35 22-09-2010 06:54:03 9.8 C 8.16 g/m*3 9.8 C 0 km/h
36 22-09-2010 07:06:01 9.8 C 8.16 g/m*3 9.8 C 0 km/h
37 22-09-2010 07:18:02 9.8 C 8.16 g/m*3 9.8 C 0 km/h
38 22-09-2010 07:30:02 9.6 C 8.06 g/m*3 9.6 C 0 km/h
39 22-09-2010 07:42:01 9.3 C 7.91 g/m*3 9.3 C 0 km/h
40 22-09-2010 07:54:01 9.3 C 7.91 g/m*3 9.3 C 0 km/h
41 22-09-2010 08:06:01 9.3 C 7.91 g/m*3 9.3 C 0 km/h
42 22-09-2010 08:18:02 9.3 C 7.91 g/m*3 9.3 C 0 km/h
43 22-09-2010 08:30:02 9.6 C 8.15 g/m*3 9.6 C 0 km/h
44 22-09-2010 08:42:01 9.3 C 7.91 g/m*3 9.3 C 0 km/h
45 22-09-2010 08:54:02 9.3 C 7.91 g/m*3 9.3 C 0 km/h
46 22-09-2010 09:06:01 9.6 C 8.06 g/m*3 9.6 C 0 km/h
47 22-09-2010 09:18:02 9.8 C 8.16 g/m*3 9.8 C 0 km/h
48 22-09-2010 09:30:02 10.2 C 8.09 g/m*3 10.2 C 0 km/h
49 22-09-2010 09:42:01 10.3 C 8.04 g/m*3 10.3 C 0 km/h
50 22-09-2010 09:54:02 11 C 8.41 g/m*3 11 C 0 km/h
Sensor: Nr:Datum:Temp:Abs-Feuchte:Windchill:Wind:
Aussen-T/F 51 22-09-2010 10:06:01 11.8 C 8.63 g/m*3 11.8 C 0 km/h
52 22-09-2010 10:18:01 12.4 C 8.74 g/m*3 12.4 C 0 km/h
53 22-09-2010 10:30:01 12 C 8.31 g/m*3 12 C 0 km/h
54 22-09-2010 10:42:02 12.7 C 8.79 g/m*3 12.7 C 0 km/h
55 22-09-2010 10:54:01 13.2 C 8.73 g/m*3 13.2 C 0 km/h
56 22-09-2010 11:06:02 12.9 C 8.68 g/m*3 12.9 C 0 km/h
57 22-09-2010 11:18:01 13.1 C 8.9 g/m*3 13.1 C 0 km/h
58 22-09-2010 11:30:01 13.6 C 9.3 g/m*3 13.6 C 0 km/h
59 22-09-2010 11:42:02 14.2 C 9.52 g/m*3 14.2 C 0 km/h
60 22-09-2010 11:54:01 15.1 C 9.55 g/m*3 15.1 C 0 km/h
61 22-09-2010 12:06:02 15.6 C 9.71 g/m*3 15.6 C 0 km/h
62 22-09-2010 12:18:01 16 C 9.67 g/m*3 16 C 0 km/h
63 22-09-2010 12:30:01 16.5 C 9.97 g/m*3 16.5 C 0 km/h
64 22-09-2010 12:42:01 17.1 C 10.19 g/m*3 17.1 C 0 km/h
65 22-09-2010 12:54:01 17.5 C 10.29 g/m*3 17.5 C 0 km/h
66 22-09-2010 13:06:01 18.4 C 9.91 g/m*3 18.4 C 0 km/h
67 22-09-2010 13:18:02 19.1 C 9.84 g/m*3 19.1 C 0 km/h
68 22-09-2010 13:30:02 19.7 C 10.19 g/m*3 19.7 C 0 km/h
69 22-09-2010 13:42:01 20.4 C 10.26 g/m*3 20.4 C 0 km/h
70 22-09-2010 13:54:01 21.2 C 10.19 g/m*3 21.2 C 0 km/h
71 22-09-2010 14:06:01 21.8 C 10.36 g/m*3 21.8 C 0 km/h
72 22-09-2010 14:18:02 22.2 C 10.01 g/m*3 22.2 C 0 km/h
73 22-09-2010 14:30:02 22.9 C 10.22 g/m*3 22.9 C 0 km/h
74 22-09-2010 14:42:01 23.4 C 9.88 g/m*3 23.4 C 0 km/h
75 22-09-2010 14:54:02 24 C 9.79 g/m*3 24 C 0 km/h
Sensor: Nr:Datum:Temp:Abs-Feuchte:Windchill:Wind:
Aussen-T/F 76 22-09-2010 15:06:01 24.2 C 9.9 g/m*3 24.2 C 0 km/h
77 22-09-2010 15:18:01 24.1 C 9.63 g/m*3 24.1 C 0 km/h
78 22-09-2010 15:30:01 24.9 C 9.61 g/m*3 24.9 C 0 km/h
79 22-09-2010 15:42:01 25.6 C 8.81 g/m*3 25.6 C 0 km/h
80 22-09-2010 15:54:01 26.5 C 8.26 g/m*3 26.5 C 0 km/h
81 22-09-2010 16:06:01 26.9 C 8.7 g/m*3 26.9 C 0 km/h
82 22-09-2010 16:18:01 27.1 C 8.8 g/m*3 27.1 C 0 km/h
83 22-09-2010 16:30:01 27.4 C 8.68 g/m*3 27.4 C 0 km/h
84 22-09-2010 16:42:02 27.6 C 8.51 g/m*3 27.6 C 0 km/h
85 22-09-2010 16:54:01 27.6 C 8.25 g/m*3 27.6 C 0 km/h
86 22-09-2010 17:06:02 27.3 C 7.85 g/m*3 27.3 C 0 km/h
87 22-09-2010 17:18:01 27.4 C 8.16 g/m*3 27.4 C 0 km/h
88 22-09-2010 17:30:01 27.2 C 8.07 g/m*3 27.2 C 0 km/h
89 22-09-2010 17:42:01 26.9 C 7.93 g/m*3 26.9 C 0 km/h
90 22-09-2010 17:54:01 26.5 C 8.76 g/m*3 26.5 C 0 km/h
91 22-09-2010 18:06:02 26.1 C 8.81 g/m*3 26.1 C 0 km/h
92 22-09-2010 18:18:01 25.6 C 9.05 g/m*3 25.6 C 0 km/h
93 22-09-2010 18:30:01 25.3 C 9.36 g/m*3 25.3 C 0 km/h
94 22-09-2010 18:42:01 24.1 C 8.97 g/m*3 24.1 C 0 km/h
95 22-09-2010 18:54:01 23.3 C 9.2 g/m*3 23.3 C 0 km/h
96 22-09-2010 19:06:01 22.5 C 9.19 g/m*3 22.5 C 0 km/h
97 22-09-2010 19:18:02 21.8 C 9.4 g/m*3 21.8 C 0 km/h
98 22-09-2010 19:30:02 20.6 C 9.31 g/m*3 20.6 C 0 km/h
99 22-09-2010 19:42:01 20 C 8.99 g/m*3 20 C 0 km/h
100 22-09-2010 19:54:01 19.5 C 9.06 g/m*3 19.5 C 0 km/h
Sensor: Nr:Datum:Temp:Abs-Feuchte:Windchill:Wind:
Aussen-T/F 101 22-09-2010 20:06:01 19 C 9.13 g/m*3 19 C 0 km/h
102 22-09-2010 20:18:02 18.7 C 9.13 g/m*3 18.7 C 0 km/h
103 22-09-2010 20:30:02 18.5 C 9.02 g/m*3 18.5 C 0 km/h
104 22-09-2010 20:42:01 18.4 C 9.12 g/m*3 18.4 C 0 km/h
105 22-09-2010 20:54:02 18.1 C 9.12 g/m*3 18.1 C 0 km/h
106 22-09-2010 21:06:01 17.9 C 9.31 g/m*3 17.9 C 0 km/h
107 22-09-2010 21:18:01 17.6 C 9.45 g/m*3 17.6 C 0 km/h
108 22-09-2010 21:30:01 17.5 C 9.24 g/m*3 17.5 C 0 km/h
109 22-09-2010 21:42:01 17.3 C 9.28 g/m*3 17.3 C 0 km/h
110 22-09-2010 21:54:01 17 C 9.26 g/m*3 17 C 0 km/h
111 22-09-2010 22:08:02 16.8 C 9.29 g/m*3 16.8 C 0 km/h
112 22-09-2010 22:20:02 16.4 C 9.35 g/m*3 16.4 C 0 km/h
113 22-09-2010 22:32:02 16.1 C 9.32 g/m*3 16.1 C 0 km/h
114 22-09-2010 22:44:02 15.9 C 9.21 g/m*3 15.9 C 0 km/h
115 22-09-2010 22:56:02 15.7 C 9.1 g/m*3 15.7 C 0 km/h
116 22-09-2010 23:08:02 15.4 C 8.8 g/m*3 15.4 C 0 km/h
117 22-09-2010 23:20:02 15.1 C 8.77 g/m*3 15.1 C 0 km/h
118 22-09-2010 23:32:02 14.9 C 8.79 g/m*3 14.9 C 0 km/h
119 22-09-2010 23:44:02 14.7 C 8.81 g/m*3 14.7 C 0 km/h
120 22-09-2010 23:56:02 14.5 C 8.71 g/m*3 14.5 C 0 km/h
121 23-09-2010 00:08:02 14.4 C 8.53 g/m*3 14.4 C 0 km/h
122 23-09-2010 00:20:02 14.2 C 8.67 g/m*3 14.2 C 0 km/h
123 23-09-2010 00:32:02 14 C 8.56 g/m*3 14 C 0 km/h
124 23-09-2010 00:44:02 13.8 C 8.7 g/m*3 13.8 C 0 km/h
125 23-09-2010 00:56:02 13.7 C 8.76 g/m*3 13.7 C 0 km/h
Sensor: Nr:Datum:Temp:Abs-Feuchte:Windchill:Wind:
Aussen-T/F 126 23-09-2010 01:08:02 13.5 C 8.77 g/m*3 13.5 C 0 km/h
127 23-09-2010 01:20:02 13.4 C 8.72 g/m*3 13.4 C 0 km/h
128 23-09-2010 01:32:02 13.2 C 8.73 g/m*3 13.2 C 0 km/h
129 23-09-2010 01:44:02 13.1 C 8.67 g/m*3 13.1 C 0 km/h
130 23-09-2010 01:56:03 12.9 C 8.68 g/m*3 12.9 C 0 km/h
131 23-09-2010 02:08:03 12.8 C 8.74 g/m*3 12.8 C 0 km/h
132 23-09-2010 02:20:03 12.6 C 8.74 g/m*3 12.6 C 0 km/h
133 23-09-2010 02:32:03 12.4 C 8.74 g/m*3 12.4 C 0 km/h
134 23-09-2010 02:44:03 12.3 C 8.69 g/m*3 12.3 C 0 km/h
135 23-09-2010 02:56:03 12.1 C 8.58 g/m*3 12.1 C 0 km/h
136 23-09-2010 03:08:03 12 C 8.53 g/m*3 12 C 0 km/h
137 23-09-2010 03:20:03 11.8 C 8.53 g/m*3 11.8 C 0 km/h
138 23-09-2010 03:32:03 11.8 C 8.53 g/m*3 11.8 C 0 km/h
139 23-09-2010 03:44:03 11.8 C 8.63 g/m*3 11.8 C 0 km/h
140 23-09-2010 03:56:03 11.6 C 8.63 g/m*3 11.6 C 0 km/h
141 23-09-2010 04:08:03 11.4 C 8.52 g/m*3 11.4 C 0 km/h
142 23-09-2010 04:20:03 11.2 C 8.41 g/m*3 11.2 C 0 km/h
143 23-09-2010 04:32:03 11.2 C 8.41 g/m*3 11.2 C 0 km/h
144 23-09-2010 04:44:03 11 C 8.31 g/m*3 11 C 0 km/h
145 23-09-2010 04:56:03 11 C 8.31 g/m*3 11 C 0 km/h
146 23-09-2010 05:08:03 10.9 C 8.36 g/m*3 10.9 C 0 km/h
147 23-09-2010 05:20:03 10.7 C 8.25 g/m*3 10.7 C 0 km/h
148 23-09-2010 05:32:03 10.6 C 8.2 g/m*3 10.6 C 0 km/h
149 23-09-2010 05:44:03 10.5 C 8.15 g/m*3 10.5 C 0 km/h
150 23-09-2010 05:56:03 10.5 C 8.15 g/m*3 10.5 C 0 km/h
Sensor: Nr:Datum:Temp:Abs-Feuchte:Windchill:Wind:
Aussen-T/F 151 23-09-2010 06:08:03 10.4 C 8.1 g/m*3 10.4 C 0 km/h
152 23-09-2010 06:20:04 10.5 C 8.24 g/m*3 10.5 C 0 km/h
153 23-09-2010 06:32:04 10.6 C 8.3 g/m*3 10.6 C 0 km/h
154 23-09-2010 06:44:04 10.4 C 8.19 g/m*3 10.4 C 0 km/h
155 23-09-2010 06:56:04 10.4 C 8.19 g/m*3 10.4 C 0 km/h
156 23-09-2010 07:08:02 10.5 C 8.24 g/m*3 10.5 C 0 km/h
157 23-09-2010 07:20:01 10.4 C 8.19 g/m*3 10.4 C 0 km/h
158 23-09-2010 07:32:02 10.5 C 8.24 g/m*3 10.5 C 0 km/h
159 23-09-2010 07:44:02 10.6 C 8.3 g/m*3 10.6 C 0 km/h
160 23-09-2010 07:56:02 10.6 C 8.3 g/m*3 10.6 C 0 km/h
161 23-09-2010 08:08:02 10.6 C 8.3 g/m*3 10.6 C 0 km/h
162 23-09-2010 08:20:01 10.7 C 8.35 g/m*3 10.7 C 0 km/h
163 23-09-2010 08:32:02 10.8 C 8.4 g/m*3 10.8 C 0 km/h
164 23-09-2010 08:44:02 11 C 8.51 g/m*3 11 C 0 km/h
165 23-09-2010 08:56:02 11.3 C 8.57 g/m*3 11.3 C 0 km/h
166 23-09-2010 09:08:01 11.4 C 8.52 g/m*3 11.4 C 0 km/h
167 23-09-2010 09:20:01 11.4 C 8.52 g/m*3 11.4 C 0 km/h
168 23-09-2010 09:32:02 11.4 C 8.52 g/m*3 11.4 C 0 km/h
169 23-09-2010 09:44:02 11.7 C 8.79 g/m*3 11.7 C 0 km/h
170 23-09-2010 09:56:02 12.3 C 8.9 g/m*3 12.3 C 0 km/h
171 23-09-2010 10:08:02 12.4 C 8.96 g/m*3 12.4 C 0 km/h
172 23-09-2010 10:20:02 12.5 C 9.02 g/m*3 12.5 C 0 km/h
173 23-09-2010 10:32:02 12.9 C 9.24 g/m*3 12.9 C 0 km/h
174 23-09-2010 10:44:02 13.3 C 9.36 g/m*3 13.3 C 0 km/h
175 23-09-2010 10:56:02 13.8 C 9.65 g/m*3 13.8 C 0 km/h
Sensor: Nr:Datum:Temp:Abs-Feuchte:Windchill:Wind:
Aussen-T/F 176 23-09-2010 11:08:02 14.1 C 9.71 g/m*3 14.1 C 0 km/h
177 23-09-2010 11:20:02 15 C 10 g/m*3 15 C 0 km/h
178 23-09-2010 11:32:02 15.8 C 10.23 g/m*3 15.8 C 0 km/h
179 23-09-2010 11:44:02 16.3 C 10.13 g/m*3 16.3 C 0 km/h
180 23-09-2010 11:56:02 17 C 10.27 g/m*3 17 C 0 km/h
181 23-09-2010 12:08:02 17.5 C 10.44 g/m*3 17.5 C 0 km/h
182 23-09-2010 12:20:02 18 C 10.44 g/m*3 18 C 0 km/h
183 23-09-2010 12:32:02 18.7 C 10.73 g/m*3 18.7 C 0 km/h
184 23-09-2010 12:44:02 19.2 C 10.55 g/m*3 19.2 C 0 km/h
185 23-09-2010 12:56:02 19.9 C 10.82 g/m*3 19.9 C 0 km/h
186 23-09-2010 13:08:02 20.5 C 11.03 g/m*3 20.5 C 0 km/h
187 23-09-2010 13:20:02 21.4 C 11.06 g/m*3 21.4 C 0 km/h
188 23-09-2010 13:32:01 22.3 C 11.26 g/m*3 22.3 C 0 km/h
189 23-09-2010 13:44:01 23.3 C 10.66 g/m*3 23.3 C 0 km/h
190 23-09-2010 13:56:02 24 C 9.14 g/m*3 24 C 0 km/h
191 23-09-2010 14:08:01 24.5 C 9.62 g/m*3 24.5 C 0 km/h
192 23-09-2010 14:20:02 23.8 C 10.11 g/m*3 23.8 C 0 km/h
193 23-09-2010 14:32:02 23.7 C 10.48 g/m*3 23.7 C 0 km/h
194 23-09-2010 14:44:02 23.8 C 10.54 g/m*3 23.8 C 0 km/h
195 23-09-2010 14:56:02 24.5 C 10.3 g/m*3 24.5 C 0 km/h
196 23-09-2010 15:08:02 25.2 C 8.85 g/m*3 25.2 C 0 km/h
197 23-09-2010 15:20:02 25.2 C 9.78 g/m*3 25.2 C 0 km/h
198 23-09-2010 15:32:02 24.8 C 9.33 g/m*3 24.8 C 0 km/h
199 23-09-2010 15:44:03 25.1 C 9.26 g/m*3 25.1 C 0 km/h
200 23-09-2010 15:56:01 24.9 C 9.61 g/m*3 24.9 C 0 km/h
Sensor: Nr:Datum:Temp:Abs-Feuchte:Windchill:Wind:
Aussen-T/F 201 23-09-2010 16:08:02 25.1 C 10.19 g/m*3 25.1 C 0 km/h
202 23-09-2010 16:20:01 26 C 9.74 g/m*3 26 C 0 km/h
203 23-09-2010 16:32:01 25.6 C 9.05 g/m*3 25.6 C 0 km/h
204 23-09-2010 16:44:01 24.9 C 10.07 g/m*3 24.9 C 0 km/h
205 23-09-2010 16:56:01 24.1 C 10.28 g/m*3 24.1 C 0 km/h
206 23-09-2010 17:08:01 23.7 C 10.91 g/m*3 23.7 C 0 km/h
207 23-09-2010 17:20:02 23.4 C 10.72 g/m*3 23.4 C 0 km/h
208 23-09-2010 17:32:01 23.2 C 10.81 g/m*3 23.2 C 0 km/h
209 23-09-2010 17:44:01 23.3 C 10.45 g/m*3 23.3 C 0 km/h
210 23-09-2010 17:56:02 23.8 C 10.76 g/m*3 23.8 C 0 km/h
211 23-09-2010 18:08:01 23.3 C 10.45 g/m*3 23.3 C 0 km/h
212 23-09-2010 18:20:02 22.6 C 10.25 g/m*3 22.6 C 0 km/h
213 23-09-2010 18:32:01 21.7 C 10.68 g/m*3 21.7 C 0 km/h
214 23-09-2010 18:44:01 21.6 C 10.81 g/m*3 21.6 C 0 km/h
215 23-09-2010 18:56:02 21.4 C 10.87 g/m*3 21.4 C 0 km/h
216 23-09-2010 19:08:02 20.9 C 10.93 g/m*3 20.9 C 0 km/h
217 23-09-2010 19:20:02 20.4 C 10.97 g/m*3 20.4 C 0 km/h
218 23-09-2010 19:32:02 19.8 C 11.1 g/m*3 19.8 C 0 km/h
219 23-09-2010 19:44:02 19.4 C 11.18 g/m*3 19.4 C 0 km/h
220 23-09-2010 19:56:02 19 C 11.08 g/m*3 19 C 0 km/h
221 23-09-2010 20:08:01 18.8 C 11.43 g/m*3 18.8 C 0 km/h
222 23-09-2010 20:20:02 18.6 C 11.3 g/m*3 18.6 C 0 km/h
223 23-09-2010 20:32:02 18.6 C 11.3 g/m*3 18.6 C 0 km/h
224 23-09-2010 20:44:02 18.4 C 11.32 g/m*3 18.4 C 0 km/h
225 23-09-2010 20:56:02 18.1 C 11.12 g/m*3 18.1 C 0 km/h
Sensor: Nr:Datum:Temp:Abs-Feuchte:Windchill:Wind:
Aussen-T/F 226 23-09-2010 21:08:02 18.4 C 11.48 g/m*3 18.4 C 0 km/h
227 23-09-2010 21:20:01 18.3 C 11.41 g/m*3 18.3 C 0 km/h
228 23-09-2010 21:32:02 18.4 C 11.64 g/m*3 18.4 C 0 km/h
229 23-09-2010 21:44:02 18.7 C 11.53 g/m*3 18.7 C 0 km/h
230 23-09-2010 21:57:02 18.7 C 11.37 g/m*3 18.7 C 0 km/h
231 23-09-2010 22:09:02 18.5 C 11.23 g/m*3 18.5 C 0 km/h
232 23-09-2010 22:21:02 18.5 C 11.39 g/m*3 18.5 C 0 km/h
233 23-09-2010 22:33:02 17.9 C 11.6 g/m*3 17.9 C 0 km/h
234 23-09-2010 22:45:02 17.7 C 12.52 g/m*3 17.7 C 0 km/h
235 23-09-2010 22:57:02 17.1 C 12.23 g/m*3 17.1 C 0 km/h
236 23-09-2010 23:09:02 16.9 C 12.37 g/m*3 16.9 C 0 km/h
237 23-09-2010 23:21:02 16.5 C 12.22 g/m*3 16.5 C 0 km/h
238 23-09-2010 23:33:02 16.4 C 12.28 g/m*3 16.4 C 0 km/h
239 23-09-2010 23:45:02 16.2 C 12.14 g/m*3 16.2 C 0 km/h
240 23-09-2010 23:57:02 16.2 C 12.27 g/m*3 16.2 C 0 km/h
241 24-09-2010 00:09:02 16 C 12.13 g/m*3 16 C 0 km/h
242 24-09-2010 00:21:02 15.9 C 12.32 g/m*3 15.9 C 0 km/h
243 24-09-2010 00:33:02 15.6 C 12.1 g/m*3 15.6 C 0 km/h
244 24-09-2010 00:45:02 15.5 C 12.16 g/m*3 15.5 C 0 km/h
245 24-09-2010 00:57:02 15.5 C 12.16 g/m*3 15.5 C 0 km/h
246 24-09-2010 01:09:02 15.5 C 12.16 g/m*3 15.5 C 0 km/h
247 24-09-2010 01:21:02 15.5 C 12.29 g/m*3 15.5 C 0 km/h
248 24-09-2010 01:33:02 15.6 C 12.37 g/m*3 15.6 C 0 km/h
249 24-09-2010 01:45:02 15.6 C 12.37 g/m*3 15.6 C 0 km/h
250 24-09-2010 01:57:03 15.5 C 12.29 g/m*3 15.5 C 0 km/h
Sensor: Nr:Datum:Temp:Abs-Feuchte:Windchill:Wind:
Aussen-T/F 251 24-09-2010 02:09:03 15.5 C 12.29 g/m*3 15.5 C 0 km/h
252 24-09-2010 02:21:03 15.5 C 12.29 g/m*3 15.5 C 0 km/h
253 24-09-2010 02:33:03 15.4 C 12.22 g/m*3 15.4 C 0 km/h
254 24-09-2010 02:45:03 15.3 C 12.01 g/m*3 15.3 C 0 km/h
255 24-09-2010 02:57:03 15.2 C 11.94 g/m*3 15.2 C 0 km/h
256 24-09-2010 03:09:03 15.1 C 11.87 g/m*3 15.1 C 0 km/h
257 24-09-2010 03:21:03 14.9 C 11.85 g/m*3 14.9 C 0 km/h
258 24-09-2010 03:33:03 14.9 C 11.85 g/m*3 14.9 C 0 km/h
259 24-09-2010 03:45:03 14.9 C 11.98 g/m*3 14.9 C 0 km/h
260 24-09-2010 03:57:03 14.9 C 11.98 g/m*3 14.9 C 0 km/h
261 24-09-2010 04:09:03 14.8 C 11.91 g/m*3 14.8 C 0 km/h
262 24-09-2010 04:21:03 14.8 C 11.91 g/m*3 14.8 C 0 km/h
263 24-09-2010 04:33:03 14.8 C 11.91 g/m*3 14.8 C 0 km/h
264 24-09-2010 04:45:03 14.8 C 11.91 g/m*3 14.8 C 0 km/h
265 24-09-2010 04:57:03 14.7 C 11.83 g/m*3 14.7 C 0 km/h
266 24-09-2010 05:09:03 14.5 C 11.69 g/m*3 14.5 C 0 km/h
267 24-09-2010 05:21:03 14.5 C 11.69 g/m*3 14.5 C 0 km/h
268 24-09-2010 05:33:03 14.5 C 11.69 g/m*3 14.5 C 0 km/h
269 24-09-2010 05:45:03 14.6 C 11.76 g/m*3 14.6 C 0 km/h
270 24-09-2010 05:57:03 14.6 C 11.76 g/m*3 14.6 C 0 km/h
271 24-09-2010 06:09:03 14.7 C 11.83 g/m*3 14.7 C 0 km/h
272 24-09-2010 06:21:04 14.7 C 11.83 g/m*3 14.7 C 0 km/h
273 24-09-2010 06:33:04 14.7 C 11.83 g/m*3 14.7 C 0 km/h
274 24-09-2010 06:45:04 14.7 C 11.83 g/m*3 14.7 C 0 km/h
275 24-09-2010 06:57:04 14.7 C 11.83 g/m*3 14.7 C 0 km/h
Sensor: Nr:Datum:Temp:Abs-Feuchte:Windchill:Wind:
Aussen-T/F 276 24-09-2010 07:09:04 14.5 C 11.69 g/m*3 14.5 C 0 km/h
277 24-09-2010 07:21:04 14.4 C 11.62 g/m*3 14.4 C 0 km/h
278 24-09-2010 07:33:02 14.3 C 11.55 g/m*3 14.3 C 0 km/h
279 24-09-2010 07:45:02 14.4 C 11.62 g/m*3 14.4 C 0 km/h
280 24-09-2010 07:57:02 14.4 C 11.62 g/m*3 14.4 C 0 km/h
281 24-09-2010 08:09:02 14.4 C 11.62 g/m*3 14.4 C 0 km/h
282 24-09-2010 08:21:01 14.3 C 11.55 g/m*3 14.3 C 0 km/h
283 24-09-2010 08:33:02 14.6 C 11.89 g/m*3 14.6 C 0 km/h
284 24-09-2010 08:45:02 14.8 C 12.03 g/m*3 14.8 C 0 km/h
285 24-09-2010 08:57:02 14.8 C 12.03 g/m*3 14.8 C 0 km/h
286 24-09-2010 09:09:01 14.8 C 12.03 g/m*3 14.8 C 0 km/h
287 24-09-2010 09:21:02 14.8 C 12.03 g/m*3 14.8 C 0 km/h
288 24-09-2010 09:33:01 14.9 C 12.11 g/m*3 14.9 C 0 km/h
289 24-09-2010 09:45:02 14.9 C 12.11 g/m*3 14.9 C 0 km/h
290 24-09-2010 09:57:02 15 C 12.05 g/m*3 15 C 0 km/h
291 24-09-2010 10:09:02 15 C 12.05 g/m*3 15 C 0 km/h
292 24-09-2010 10:21:02 14.9 C 12.11 g/m*3 14.9 C 0 km/h
293 24-09-2010 10:33:02 15 C 12.05 g/m*3 15 C 0 km/h
294 24-09-2010 10:45:01 15 C 12.05 g/m*3 15 C 0 km/h
295 24-09-2010 10:57:01 15 C 12.05 g/m*3 15 C 0 km/h
296 24-09-2010 11:09:02 15.1 C 12.13 g/m*3 15.1 C 0 km/h
297 24-09-2010 11:21:01 15.1 C 12.13 g/m*3 15.1 C 0 km/h
298 24-09-2010 11:33:01 15.4 C 12.35 g/m*3 15.4 C 0 km/h
299 24-09-2010 11:45:02 15.4 C 12.35 g/m*3 15.4 C 0 km/h
300 24-09-2010 11:57:02 15.1 C 12.13 g/m*3 15.1 C 0 km/h
Sensor: Nr:Datum:Temp:Abs-Feuchte:Windchill:Wind:
Aussen-T/F 301 24-09-2010 12:09:02 15.1 C 12.13 g/m*3 15.1 C 0 km/h
302 24-09-2010 12:21:02 15.1 C 12.13 g/m*3 15.1 C 0 km/h
303 24-09-2010 12:33:03 15.4 C 12.48 g/m*3 15.4 C 0 km/h
304 24-09-2010 12:45:02 15.1 C 12.13 g/m*3 15.1 C 0 km/h
305 24-09-2010 12:57:03 15 C 12.05 g/m*3 15 C 0 km/h
306 24-09-2010 13:09:02 14.8 C 11.91 g/m*3 14.8 C 0 km/h
307 24-09-2010 13:21:02 14.6 C 11.76 g/m*3 14.6 C 0 km/h
308 24-09-2010 13:33:02 14.5 C 11.69 g/m*3 14.5 C 0 km/h
309 24-09-2010 13:45:02 14.5 C 11.69 g/m*3 14.5 C 0 km/h
310 24-09-2010 13:57:02 14.4 C 11.62 g/m*3 14.4 C 0 km/h
311 24-09-2010 14:09:03 14.1 C 11.41 g/m*3 14.1 C 0 km/h
312 24-09-2010 14:21:02 13.8 C 11.2 g/m*3 13.8 C 0 km/h
313 24-09-2010 14:33:03 13.5 C 10.99 g/m*3 13.5 C 0 km/h
314 24-09-2010 14:45:02 13.2 C 10.79 g/m*3 13.2 C 0 km/h
315 24-09-2010 14:57:02 13.1 C 10.73 g/m*3 13.1 C 0 km/h
316 24-09-2010 15:09:02 12.9 C 10.71 g/m*3 12.9 C 0 km/h
317 24-09-2010 15:21:03 13.1 C 10.73 g/m*3 13.1 C 0 km/h
318 24-09-2010 15:33:02 13 C 10.77 g/m*3 13 C 0 km/h
319 24-09-2010 15:45:03 13.2 C 10.91 g/m*3 13.2 C 0 km/h
320 24-09-2010 15:57:03 13.2 C 10.91 g/m*3 13.2 C 0 km/h
321 24-09-2010 16:09:02 13.3 C 10.98 g/m*3 13.3 C 0 km/h
322 24-09-2010 16:21:02 13.7 C 11.25 g/m*3 13.7 C 0 km/h
323 24-09-2010 16:33:02 14 C 11.46 g/m*3 14 C 0 km/h
324 24-09-2010 16:45:02 14.1 C 11.53 g/m*3 14.1 C 0 km/h
325 24-09-2010 16:57:02 13.9 C 11.39 g/m*3 13.9 C 0 km/h
Sensor: Nr:Datum:Temp:Abs-Feuchte:Windchill:Wind:
Aussen-T/F 326 24-09-2010 17:09:02 13.9 C 11.39 g/m*3 13.9 C 0 km/h
327 24-09-2010 17:21:02 13.9 C 11.39 g/m*3 13.9 C 0 km/h
328 24-09-2010 17:33:02 13.4 C 10.93 g/m*3 13.4 C 0 km/h
329 24-09-2010 17:45:02 13.2 C 10.79 g/m*3 13.2 C 0 km/h
330 24-09-2010 17:57:02 13 C 10.66 g/m*3 13 C 0 km/h
331 24-09-2010 18:09:01 13.2 C 10.79 g/m*3 13.2 C 0 km/h
332 24-09-2010 18:21:01 13.3 C 10.86 g/m*3 13.3 C 0 km/h
333 24-09-2010 18:33:02 13.3 C 10.86 g/m*3 13.3 C 0 km/h
334 24-09-2010 18:45:02 13.3 C 10.86 g/m*3 13.3 C 0 km/h
335 24-09-2010 18:57:02 13.2 C 10.79 g/m*3 13.2 C 0 km/h
336 24-09-2010 19:09:02 13.1 C 10.73 g/m*3 13.1 C 0 km/h
337 24-09-2010 19:21:01 12.9 C 10.71 g/m*3 12.9 C 0 km/h
338 24-09-2010 19:33:02 12.8 C 10.64 g/m*3 12.8 C 0 km/h
339 24-09-2010 19:45:02 12.7 C 10.58 g/m*3 12.7 C 0 km/h
340 24-09-2010 19:57:02 12.7 C 10.58 g/m*3 12.7 C 0 km/h
341 24-09-2010 20:09:02 12.7 C 10.58 g/m*3 12.7 C 0 km/h
342 24-09-2010 20:21:01 12.7 C 10.58 g/m*3 12.7 C 0 km/h
343 24-09-2010 20:33:02 12.7 C 10.58 g/m*3 12.7 C 0 km/h
344 24-09-2010 20:45:01 12.7 C 10.58 g/m*3 12.7 C 0 km/h
345 24-09-2010 20:57:01 12.7 C 10.58 g/m*3 12.7 C 0 km/h
346 24-09-2010 21:09:02 12.8 C 10.64 g/m*3 12.8 C 0 km/h
347 24-09-2010 21:21:02 12.8 C 10.64 g/m*3 12.8 C 0 km/h
348 24-09-2010 21:33:02 12.9 C 10.71 g/m*3 12.9 C 0 km/h
349 24-09-2010 21:45:02 12.8 C 10.64 g/m*3 12.8 C 0 km/h
350 24-09-2010 21:57:02 12.8 C 10.64 g/m*3 12.8 C 0 km/h
Sensor: Nr:Datum:Temp:Abs-Feuchte:Windchill:Wind:
Aussen-T/F 351 24-09-2010 22:09:01 12.8 C 10.64 g/m*3 12.8 C 0 km/h
352 24-09-2010 22:21:02 12.8 C 10.64 g/m*3 12.8 C 0 km/h
353 24-09-2010 22:33:02 12.7 C 10.58 g/m*3 12.7 C 0 km/h
354 24-09-2010 22:46:04 12.6 C 10.51 g/m*3 12.6 C 0 km/h
355 24-09-2010 22:58:04 12.6 C 10.51 g/m*3 12.6 C 0 km/h
356 24-09-2010 23:10:04 12.5 C 10.44 g/m*3 12.5 C 0 km/h
357 24-09-2010 23:22:04 12.4 C 10.38 g/m*3 12.4 C 0 km/h
358 24-09-2010 23:34:04 12.4 C 10.38 g/m*3 12.4 C 0 km/h
359 24-09-2010 23:46:04 12.3 C 10.32 g/m*3 12.3 C 0 km/h
360 24-09-2010 23:58:04 12.4 C 10.38 g/m*3 12.4 C 0 km/h
361 25-09-2010 00:10:04 12.4 C 10.38 g/m*3 12.4 C 0 km/h
362 25-09-2010 00:22:04 12.5 C 10.44 g/m*3 12.5 C 0 km/h
363 25-09-2010 00:34:04 12.5 C 10.44 g/m*3 12.5 C 0 km/h
364 25-09-2010 00:46:04 12.5 C 10.44 g/m*3 12.5 C 0 km/h
365 25-09-2010 00:58:05 12.5 C 10.44 g/m*3 12.5 C 0 km/h
366 25-09-2010 01:10:05 12.5 C 10.44 g/m*3 12.5 C 0 km/h
367 25-09-2010 01:22:05 12.5 C 10.44 g/m*3 12.5 C 0 km/h
368 25-09-2010 01:34:05 12.5 C 10.44 g/m*3 12.5 C 0 km/h
369 25-09-2010 01:46:05 12.5 C 10.44 g/m*3 12.5 C 0 km/h
370 25-09-2010 01:58:05 12.6 C 10.51 g/m*3 12.6 C 0 km/h
371 25-09-2010 02:10:05 12.6 C 10.51 g/m*3 12.6 C 0 km/h
372 25-09-2010 02:22:05 12.6 C 10.51 g/m*3 12.6 C 0 km/h
373 25-09-2010 02:34:05 12.6 C 10.51 g/m*3 12.6 C 0 km/h
374 25-09-2010 02:46:05 12.6 C 10.51 g/m*3 12.6 C 0 km/h
375 25-09-2010 02:58:05 12.6 C 10.51 g/m*3 12.6 C 0 km/h
Sensor: Nr:Datum:Temp:Abs-Feuchte:Windchill:Wind:
Aussen-T/F 376 25-09-2010 03:10:05 12.7 C 10.58 g/m*3 12.7 C 0 km/h
377 25-09-2010 03:22:05 12.6 C 10.51 g/m*3 12.6 C 0 km/h
378 25-09-2010 03:34:05 12.6 C 10.51 g/m*3 12.6 C 0 km/h
379 25-09-2010 03:46:05 12.6 C 10.51 g/m*3 12.6 C 0 km/h
380 25-09-2010 03:58:05 12.6 C 10.51 g/m*3 12.6 C 0 km/h
381 25-09-2010 04:10:05 12.6 C 10.51 g/m*3 12.6 C 0 km/h
382 25-09-2010 04:22:05 12.5 C 10.44 g/m*3 12.5 C 0 km/h
383 25-09-2010 04:34:05 12.6 C 10.51 g/m*3 12.6 C 0 km/h
384 25-09-2010 04:46:05 12.5 C 10.44 g/m*3 12.5 C 0 km/h
385 25-09-2010 04:58:06 12.5 C 10.44 g/m*3 12.5 C 0 km/h
386 25-09-2010 05:10:06 12.5 C 10.44 g/m*3 12.5 C 0 km/h
387 25-09-2010 05:22:06 12.4 C 10.38 g/m*3 12.4 C 0 km/h
388 25-09-2010 05:34:06 12.4 C 10.38 g/m*3 12.4 C 0 km/h
389 25-09-2010 05:46:06 12.3 C 10.32 g/m*3 12.3 C 0 km/h
390 25-09-2010 05:58:06 12.3 C 10.21 g/m*3 12.3 C 0 km/h
391 25-09-2010 06:10:06 12.1 C 10.08 g/m*3 12.1 C 0 km/h
392 25-09-2010 06:22:06 12.1 C 10.08 g/m*3 12.1 C 0 km/h
393 25-09-2010 06:34:06 12.1 C 10.08 g/m*3 12.1 C 0 km/h
394 25-09-2010 06:46:06 12 C 10.02 g/m*3 12 C 0 km/h
395 25-09-2010 06:58:06 12 C 10.02 g/m*3 12 C 0 km/h
396 25-09-2010 07:10:06 12 C 10.02 g/m*3 12 C 0 km/h
397 25-09-2010 07:22:06 11.9 C 9.96 g/m*3 11.9 C 0 km/h
398 25-09-2010 07:34:06 11.9 C 9.96 g/m*3 11.9 C 0 km/h
399 25-09-2010 07:46:02 11.8 C 9.89 g/m*3 11.8 C 0 km/h
400 25-09-2010 07:58:02 11.8 C 9.89 g/m*3 11.8 C 0 km/h
Sensor: Nr:Datum:Temp:Abs-Feuchte:Windchill:Wind:
Aussen-T/F 401 25-09-2010 08:10:02 11.7 C 9.83 g/m*3 11.7 C 0 km/h
402 25-09-2010 08:22:02 11.6 C 9.77 g/m*3 11.6 C 0 km/h
403 25-09-2010 08:34:02 11.2 C 9.43 g/m*3 11.2 C 0 km/h
404 25-09-2010 08:46:02 11 C 9.31 g/m*3 11 C 0 km/h
405 25-09-2010 08:58:02 10.8 C 9.19 g/m*3 10.8 C 0 km/h
406 25-09-2010 09:10:01 10.6 C 9.08 g/m*3 10.6 C 0 km/h
407 25-09-2010 09:22:02 10.4 C 8.96 g/m*3 10.4 C 0 km/h
408 25-09-2010 09:34:02 10.5 C 8.92 g/m*3 10.5 C 0 km/h
409 25-09-2010 09:46:02 10.5 C 8.83 g/m*3 10.5 C 0 km/h
410 25-09-2010 09:58:02 10.4 C 8.29 g/m*3 10.4 C 0 km/h
411 25-09-2010 10:10:03 10.5 C 8.15 g/m*3 10.5 C 0 km/h
412 25-09-2010 10:22:02 10.8 C 8.2 g/m*3 10.8 C 0 km/h
413 25-09-2010 10:34:02 11.1 C 8.36 g/m*3 11.1 C 0 km/h
414 25-09-2010 10:46:01 11.3 C 8.36 g/m*3 11.3 C 0 km/h
415 25-09-2010 10:58:01 11.5 C 8.16 g/m*3 11.5 C 0 km/h
416 25-09-2010 11:10:02 11.6 C 7.8 g/m*3 11.6 C 0 km/h
417 25-09-2010 11:22:01 12.1 C 7.72 g/m*3 12.1 C 0 km/h
418 25-09-2010 11:34:02 12.3 C 7.38 g/m*3 12.3 C 0 km/h
419 25-09-2010 11:46:01 12.5 C 7.26 g/m*3 12.5 C 0 km/h
420 25-09-2010 11:58:01 13 C 7.03 g/m*3 13 C 0 km/h
421 25-09-2010 12:10:02 12.8 C 6.83 g/m*3 12.8 C 0 km/h
422 25-09-2010 12:22:01 12.8 C 7.06 g/m*3 12.8 C 0 km/h
423 25-09-2010 12:34:02 12.4 C 6.88 g/m*3 12.4 C 0 km/h
424 25-09-2010 12:46:02 11.8 C 6.84 g/m*3 11.8 C 0 km/h
425 25-09-2010 12:58:02 12.4 C 6.88 g/m*3 12.4 C 0 km/h
Sensor: Nr:Datum:Temp:Abs-Feuchte:Windchill:Wind:
Aussen-T/F 426 25-09-2010 13:10:02 12.7 C 6.68 g/m*3 12.7 C 0 km/h
427 25-09-2010 13:22:01 13 C 6.35 g/m*3 13 C 0 km/h
428 25-09-2010 13:34:02 13.8 C 6.43 g/m*3 13.8 C 0 km/h
429 25-09-2010 13:46:01 13.5 C 5.38 g/m*3 13.5 C 0 km/h
430 25-09-2010 13:58:01 13.3 C 5.31 g/m*3 13.3 C 0 km/h
431 25-09-2010 14:10:02 13.7 C 5.45 g/m*3 13.7 C 0 km/h
432 25-09-2010 14:22:01 13.5 C 5.5 g/m*3 13.5 C 0 km/h
433 25-09-2010 14:34:02 13.8 C 5.36 g/m*3 13.8 C 0 km/h
434 25-09-2010 14:46:01 14.4 C 5.32 g/m*3 14.4 C 0 km/h
435 25-09-2010 14:58:01 15.8 C 5.12 g/m*3 15.8 C 0 km/h
436 25-09-2010 15:10:02 14.8 C 4.43 g/m*3 14.8 C 0 km/h
437 25-09-2010 15:22:02 14.5 C 4.6 g/m*3 14.5 C 0 km/h
438 25-09-2010 15:34:01 15.7 C 4.68 g/m*3 15.7 C 0 km/h
439 25-09-2010 15:46:02 15.5 C 4.63 g/m*3 15.5 C 0 km/h
440 25-09-2010 15:58:02 14.7 C 5.04 g/m*3 14.7 C 0 km/h
441 25-09-2010 16:10:01 14.2 C 4.88 g/m*3 14.2 C 0 km/h
442 25-09-2010 16:22:02 14.4 C 5.07 g/m*3 14.4 C 0 km/h
443 25-09-2010 16:34:01 14.7 C 5.16 g/m*3 14.7 C 0 km/h
444 25-09-2010 16:46:02 15.6 C 4.79 g/m*3 15.6 C 0 km/h
445 25-09-2010 16:58:02 14.7 C 4.91 g/m*3 14.7 C 0 km/h
446 25-09-2010 17:10:02 14.3 C 4.91 g/m*3 14.3 C 0 km/h
447 25-09-2010 17:22:02 14.8 C 5.32 g/m*3 14.8 C 0 km/h
448 25-09-2010 17:34:03 15.6 C 5.19 g/m*3 15.6 C 0 km/h
449 25-09-2010 17:46:02 16.8 C 5.15 g/m*3 16.8 C 0 km/h
450 25-09-2010 17:58:02 16.5 C 4.77 g/m*3 16.5 C 0 km/h
Sensor: Nr:Datum:Temp:Abs-Feuchte:Windchill:Wind:
Aussen-T/F 451 25-09-2010 18:10:01 15.4 C 4.47 g/m*3 15.4 C 0 km/h
452 25-09-2010 18:22:01 14.3 C 4.67 g/m*3 14.3 C 0 km/h
453 25-09-2010 18:34:02 13.9 C 4.92 g/m*3 13.9 C 0 km/h
454 25-09-2010 18:46:02 13.8 C 5.36 g/m*3 13.8 C 0 km/h
455 25-09-2010 18:58:02 13.7 C 5.8 g/m*3 13.7 C 0 km/h
456 25-09-2010 19:10:02 13.5 C 5.5 g/m*3 13.5 C 0 km/h
457 25-09-2010 19:22:02 13.1 C 5.59 g/m*3 13.1 C 0 km/h
458 25-09-2010 19:34:02 13 C 5.67 g/m*3 13 C 0 km/h
459 25-09-2010 19:46:02 12.7 C 5.9 g/m*3 12.7 C 0 km/h
460 25-09-2010 19:58:02 12.6 C 6.08 g/m*3 12.6 C 0 km/h
461 25-09-2010 20:10:02 12.5 C 5.72 g/m*3 12.5 C 0 km/h
462 25-09-2010 20:22:02 12.2 C 5.61 g/m*3 12.2 C 0 km/h
463 25-09-2010 20:34:02 11.8 C 5.79 g/m*3 11.8 C 0 km/h
464 25-09-2010 20:46:02 11.1 C 6.04 g/m*3 11.1 C 0 km/h
465 25-09-2010 20:58:02 10.9 C 6.17 g/m*3 10.9 C 0 km/h
466 25-09-2010 21:10:02 10.4 C 6.17 g/m*3 10.4 C 0 km/h
467 25-09-2010 21:22:03 10.2 C 6.28 g/m*3 10.2 C 0 km/h
468 25-09-2010 21:34:02 10.1 C 6.34 g/m*3 10.1 C 0 km/h
469 25-09-2010 21:46:03 10 C 6.3 g/m*3 10 C 0 km/h
470 25-09-2010 21:58:03 9.9 C 6.44 g/m*3 9.9 C 0 km/h
471 25-09-2010 22:10:02 9.9 C 6.54 g/m*3 9.9 C 0 km/h
472 25-09-2010 22:22:02 10.2 C 6.57 g/m*3 10.2 C 0 km/h
473 25-09-2010 22:34:02 10.5 C 6.69 g/m*3 10.5 C 0 km/h
474 25-09-2010 22:46:02 10.5 C 6.69 g/m*3 10.5 C 0 km/h
475 25-09-2010 22:58:02 10.3 C 6.9 g/m*3 10.3 C 0 km/h
Sensor: Nr:Datum:Temp:Abs-Feuchte:Windchill:Wind:
Aussen-T/F 476 25-09-2010 23:10:02 9.6 C 7.15 g/m*3 9.6 C 0 km/h
477 25-09-2010 23:22:02 9.3 C 7.28 g/m*3 9.3 C 0 km/h
478 25-09-2010 23:34:01 9.2 C 7.5 g/m*3 9.2 C 0 km/h
479 25-09-2010 23:46:02 9.1 C 7.45 g/m*3 9.1 C 0 km/h
480 25-09-2010 23:58:02 9.2 C 7.59 g/m*3 9.2 C 0 km/h
481 26-09-2010 00:10:01 9.1 C 7.63 g/m*3 9.1 C 0 km/h
482 26-09-2010 00:22:02 9.5 C 7.92 g/m*3 9.5 C 0 km/h
483 26-09-2010 00:34:02 9.5 C 7.92 g/m*3 9.5 C 0 km/h
484 26-09-2010 00:46:02 9.6 C 7.79 g/m*3 9.6 C 0 km/h
485 26-09-2010 00:58:02 9.5 C 7.55 g/m*3 9.5 C 0 km/h
486 26-09-2010 01:10:02 9.5 C 7.37 g/m*3 9.5 C 0 km/h
487 26-09-2010 01:22:02 9.5 C 7.28 g/m*3 9.5 C 0 km/h
488 26-09-2010 01:34:02 9.4 C 7.15 g/m*3 9.4 C 0 km/h
489 26-09-2010 01:46:01 9.5 C 7.19 g/m*3 9.5 C 0 km/h
490 26-09-2010 01:58:01 9.5 C 7.19 g/m*3 9.5 C 0 km/h
491 26-09-2010 02:10:02 9.5 C 7.19 g/m*3 9.5 C 0 km/h
492 26-09-2010 02:22:01 9.5 C 7.1 g/m*3 9.5 C 0 km/h
493 26-09-2010 02:34:01 9.3 C 7.01 g/m*3 9.3 C 0 km/h
494 26-09-2010 02:46:01 9.4 C 6.96 g/m*3 9.4 C 0 km/h
495 26-09-2010 02:58:01 9.4 C 6.96 g/m*3 9.4 C 0 km/h
496 26-09-2010 03:10:01 9.3 C 6.92 g/m*3 9.3 C 0 km/h
497 26-09-2010 03:22:01 9.3 C 7.01 g/m*3 9.3 C 0 km/h
498 26-09-2010 03:34:01 9.3 C 7.1 g/m*3 9.3 C 0 km/h
499 26-09-2010 03:46:01 9.1 C 7.1 g/m*3 9.1 C 0 km/h
500 26-09-2010 03:58:01 9 C 7.23 g/m*3 9 C 0 km/h
Sensor: Nr:Datum:Temp:Abs-Feuchte:Windchill:Wind:
Aussen-T/F 501 26-09-2010 04:10:01 9 C 7.32 g/m*3 9 C 0 km/h
502 26-09-2010 04:22:01 9 C 7.23 g/m*3 9 C 0 km/h
503 26-09-2010 04:34:02 8.9 C 7.27 g/m*3 8.9 C 0 km/h
504 26-09-2010 04:46:01 8.7 C 7.26 g/m*3 8.7 C 0 km/h
505 26-09-2010 04:58:01 8.8 C 7.31 g/m*3 8.8 C 0 km/h
506 26-09-2010 05:10:02 9 C 7.32 g/m*3 9 C 0 km/h
507 26-09-2010 05:22:01 9.1 C 7.36 g/m*3 9.1 C 0 km/h
508 26-09-2010 05:34:01 9 C 7.32 g/m*3 9 C 0 km/h
509 26-09-2010 05:46:01 9 C 7.32 g/m*3 9 C 0 km/h
510 26-09-2010 05:58:01 9 C 7.32 g/m*3 9 C 0 km/h
511 26-09-2010 06:10:02 9 C 7.32 g/m*3 9 C 0 km/h
512 26-09-2010 06:22:01 9.1 C 7.36 g/m*3 9.1 C 0 km/h
513 26-09-2010 06:34:01 8.8 C 7.31 g/m*3 8.8 C 0 km/h
514 26-09-2010 06:46:01 8.8 C 7.4 g/m*3 8.8 C 0 km/h
515 26-09-2010 06:58:01 8.8 C 7.49 g/m*3 8.8 C 0 km/h
516 26-09-2010 07:10:01 8.8 C 7.49 g/m*3 8.8 C 0 km/h
517 26-09-2010 07:22:02 8.5 C 7.26 g/m*3 8.5 C 0 km/h
518 26-09-2010 07:34:01 8.6 C 7.39 g/m*3 8.6 C 0 km/h
519 26-09-2010 07:46:02 8.9 C 7.62 g/m*3 8.9 C 0 km/h
520 26-09-2010 07:58:02 9.2 C 7.5 g/m*3 9.2 C 0 km/h
521 26-09-2010 08:10:01 9.5 C 7.55 g/m*3 9.5 C 0 km/h
522 26-09-2010 08:22:02 9.6 C 7.33 g/m*3 9.6 C 0 km/h
523 26-09-2010 08:34:01 9.7 C 7.19 g/m*3 9.7 C 0 km/h
524 26-09-2010 08:46:02 9.7 C 7.19 g/m*3 9.7 C 0 km/h
525 26-09-2010 08:58:02 9.6 C 7.24 g/m*3 9.6 C 0 km/h
Sensor: Nr:Datum:Temp:Abs-Feuchte:Windchill:Wind:
Aussen-T/F 526 26-09-2010 09:10:01 9.4 C 7.24 g/m*3 9.4 C 0 km/h
527 26-09-2010 09:22:01 9.4 C 7.33 g/m*3 9.4 C 0 km/h
528 26-09-2010 09:34:02 10.5 C 7.57 g/m*3 10.5 C 0 km/h
529 26-09-2010 09:46:01 11 C 7.11 g/m*3 11 C 0 km/h
530 26-09-2010 09:58:01 11 C 6.61 g/m*3 11 C 0 km/h
531 26-09-2010 10:10:02 11 C 6.61 g/m*3 11 C 0 km/h
532 26-09-2010 10:22:01 11.6 C 6.76 g/m*3 11.6 C 0 km/h
533 26-09-2010 10:34:02 12 C 6.61 g/m*3 12 C 0 km/h
534 26-09-2010 10:46:01 11.9 C 6.78 g/m*3 11.9 C 0 km/h
535 26-09-2010 10:58:01 12.7 C 7.01 g/m*3 12.7 C 0 km/h
536 26-09-2010 11:10:02 12.9 C 6.42 g/m*3 12.9 C 0 km/h
537 26-09-2010 11:22:01 13.1 C 6.5 g/m*3 13.1 C 0 km/h
538 26-09-2010 11:34:02 13.2 C 6.66 g/m*3 13.2 C 0 km/h
539 26-09-2010 11:46:02 13.5 C 6.32 g/m*3 13.5 C 0 km/h
540 26-09-2010 11:58:02 13.4 C 6.28 g/m*3 13.4 C 0 km/h
541 26-09-2010 12:10:01 14 C 6.39 g/m*3 14 C 0 km/h
542 26-09-2010 12:22:02 14.3 C 6.51 g/m*3 14.3 C 0 km/h
543 26-09-2010 12:34:01 14.6 C 6.51 g/m*3 14.6 C 0 km/h
544 26-09-2010 12:46:01 15 C 6.28 g/m*3 15 C 0 km/h
545 26-09-2010 12:58:01 14.5 C 6.22 g/m*3 14.5 C 0 km/h
546 26-09-2010 13:10:02 14.5 C 6.34 g/m*3 14.5 C 0 km/h
547 26-09-2010 13:22:01 13.2 C 7.12 g/m*3 13.2 C 0 km/h
548 26-09-2010 13:34:01 12.6 C 7.63 g/m*3 12.6 C 0 km/h
549 26-09-2010 13:46:01 12.4 C 8.3 g/m*3 12.4 C 0 km/h
550 26-09-2010 13:58:01 12.3 C 8.25 g/m*3 12.3 C 0 km/h
Sensor: Nr:Datum:Temp:Abs-Feuchte:Windchill:Wind:
Aussen-T/F 551 26-09-2010 14:10:01 13.2 C 8.61 g/m*3 13.2 C 0 km/h
552 26-09-2010 14:22:01 13.4 C 8.37 g/m*3 13.4 C 0 km/h
553 26-09-2010 14:34:01 13.3 C 8.43 g/m*3 13.3 C 0 km/h
554 26-09-2010 14:46:01 13.2 C 8.15 g/m*3 13.2 C 0 km/h
555 26-09-2010 14:58:01 13.4 C 7.9 g/m*3 13.4 C 0 km/h
556 26-09-2010 15:10:01 13.6 C 7.89 g/m*3 13.6 C 0 km/h
557 26-09-2010 15:22:02 13.9 C 8.39 g/m*3 13.9 C 0 km/h
558 26-09-2010 15:34:01 14.4 C 8.16 g/m*3 14.4 C 0 km/h
559 26-09-2010 15:46:02 14.5 C 7.96 g/m*3 14.5 C 0 km/h
560 26-09-2010 15:58:02 14.5 C 8.21 g/m*3 14.5 C 0 km/h
561 26-09-2010 16:10:01 13.7 C 7.7 g/m*3 13.7 C 0 km/h
562 26-09-2010 16:22:02 13.8 C 7.51 g/m*3 13.8 C 0 km/h
563 26-09-2010 16:34:01 15.7 C 7.09 g/m*3 15.7 C 0 km/h
564 26-09-2010 16:46:01 15.5 C 6.21 g/m*3 15.5 C 0 km/h
565 26-09-2010 16:58:01 15.9 C 6.5 g/m*3 15.9 C 0 km/h
566 26-09-2010 17:10:01 16.1 C 6.44 g/m*3 16.1 C 0 km/h
567 26-09-2010 17:22:01 15.6 C 6.38 g/m*3 15.6 C 0 km/h
568 26-09-2010 17:34:02 15.4 C 6.7 g/m*3 15.4 C 0 km/h
569 26-09-2010 17:46:01 14.6 C 6.76 g/m*3 14.6 C 0 km/h
570 26-09-2010 17:58:01 14.2 C 6.72 g/m*3 14.2 C 0 km/h
571 26-09-2010 18:10:02 13.6 C 6.83 g/m*3 13.6 C 0 km/h
572 26-09-2010 18:22:01 13.1 C 6.85 g/m*3 13.1 C 0 km/h
573 26-09-2010 18:34:01 12.9 C 6.99 g/m*3 12.9 C 0 km/h
574 26-09-2010 18:46:01 12.7 C 7.01 g/m*3 12.7 C 0 km/h
575 26-09-2010 18:58:01 12.5 C 7.04 g/m*3 12.5 C 0 km/h
Sensor: Nr:Datum:Temp:Abs-Feuchte:Windchill:Wind:
Aussen-T/F 576 26-09-2010 19:10:02 12.4 C 7.1 g/m*3 12.4 C 0 km/h
577 26-09-2010 19:22:01 12.4 C 7.1 g/m*3 12.4 C 0 km/h
578 26-09-2010 19:34:01 12.2 C 7.01 g/m*3 12.2 C 0 km/h
579 26-09-2010 19:46:01 12.1 C 7.18 g/m*3 12.1 C 0 km/h
580 26-09-2010 19:58:01 12.1 C 7.08 g/m*3 12.1 C 0 km/h
581 26-09-2010 20:10:02 12 C 7.25 g/m*3 12 C 0 km/h
582 26-09-2010 20:22:01 11.9 C 7.31 g/m*3 11.9 C 0 km/h
583 26-09-2010 20:34:01 11.7 C 7.22 g/m*3 11.7 C 0 km/h
584 26-09-2010 20:46:01 11.7 C 7.22 g/m*3 11.7 C 0 km/h
585 26-09-2010 20:58:01 11.6 C 7.07 g/m*3 11.6 C 0 km/h
586 26-09-2010 21:10:01 11.6 C 7.07 g/m*3 11.6 C 0 km/h
587 26-09-2010 21:22:01 11.4 C 7.08 g/m*3 11.4 C 0 km/h
588 26-09-2010 21:34:01 11.2 C 7.1 g/m*3 11.2 C 0 km/h
589 26-09-2010 21:46:01 10.9 C 7.16 g/m*3 10.9 C 0 km/h
590 26-09-2010 21:58:01 10.7 C 7.17 g/m*3 10.7 C 0 km/h
591 26-09-2010 22:10:01 10.3 C 6.99 g/m*3 10.3 C 0 km/h
592 26-09-2010 22:22:01 10 C 7.05 g/m*3 10 C 0 km/h
593 26-09-2010 22:34:01 9.7 C 7.1 g/m*3 9.7 C 0 km/h
594 26-09-2010 22:47:04 9.3 C 7.1 g/m*3 9.3 C 0 km/h
595 26-09-2010 22:59:04 9.2 C 7.05 g/m*3 9.2 C 0 km/h
596 26-09-2010 23:11:04 9 C 7.05 g/m*3 9 C 0 km/h
597 26-09-2010 23:23:04 8.9 C 7.18 g/m*3 8.9 C 0 km/h
598 26-09-2010 23:35:04 8.9 C 7.27 g/m*3 8.9 C 0 km/h
599 26-09-2010 23:47:04 8.8 C 7.22 g/m*3 8.8 C 0 km/h
600 26-09-2010 23:59:04 8.6 C 7.13 g/m*3 8.6 C 0 km/h
Sensor: Nr:Datum:Temp:Abs-Feuchte:Windchill:Wind:
Aussen-T/F 601 27-09-2010 00:11:04 8.5 C 7.17 g/m*3 8.5 C 0 km/h
602 27-09-2010 00:23:04 8.2 C 7.03 g/m*3 8.2 C 0 km/h
603 27-09-2010 00:35:04 8.1 C 6.99 g/m*3 8.1 C 0 km/h
604 27-09-2010 00:47:04 7.9 C 6.98 g/m*3 7.9 C 0 km/h
605 27-09-2010 00:59:04 7.9 C 7.15 g/m*3 7.9 C 0 km/h
606 27-09-2010 01:11:04 7.8 C 7.18 g/m*3 7.8 C 0 km/h
607 27-09-2010 01:23:04 7.6 C 7.09 g/m*3 7.6 C 0 km/h
608 27-09-2010 01:35:04 7.5 C 7.04 g/m*3 7.5 C 0 km/h
609 27-09-2010 01:47:04 7.3 C 6.95 g/m*3 7.3 C 0 km/h
610 27-09-2010 01:59:04 7.1 C 6.94 g/m*3 7.1 C 0 km/h
611 27-09-2010 02:11:04 7 C 6.9 g/m*3 7 C 0 km/h
612 27-09-2010 02:23:04 7 C 6.9 g/m*3 7 C 0 km/h
613 27-09-2010 02:35:05 6.8 C 6.81 g/m*3 6.8 C 0 km/h
614 27-09-2010 02:47:05 6.7 C 6.84 g/m*3 6.7 C 0 km/h
615 27-09-2010 02:59:05 6.7 C 6.84 g/m*3 6.7 C 0 km/h
616 27-09-2010 03:11:05 6.5 C 6.75 g/m*3 6.5 C 0 km/h
617 27-09-2010 03:23:05 6.7 C 6.84 g/m*3 6.7 C 0 km/h
618 27-09-2010 03:35:05 6.4 C 6.71 g/m*3 6.4 C 0 km/h
619 27-09-2010 03:47:05 6.3 C 6.66 g/m*3 6.3 C 0 km/h
620 27-09-2010 03:59:05 6.4 C 6.78 g/m*3 6.4 C 0 km/h
621 27-09-2010 04:11:05 6.5 C 6.9 g/m*3 6.5 C 0 km/h
622 27-09-2010 04:23:05 6.4 C 6.85 g/m*3 6.4 C 0 km/h
623 27-09-2010 04:35:05 6.3 C 6.81 g/m*3 6.3 C 0 km/h
624 27-09-2010 04:47:05 6.1 C 6.72 g/m*3 6.1 C 0 km/h
625 27-09-2010 04:59:05 5.9 C 6.71 g/m*3 5.9 C 0 km/h
Sensor: Nr:Datum:Temp:Abs-Feuchte:Windchill:Wind:
Aussen-T/F 626 27-09-2010 05:11:05 5.9 C 6.71 g/m*3 5.9 C 0 km/h
627 27-09-2010 05:23:05 6.1 C 6.72 g/m*3 6.1 C 0 km/h
628 27-09-2010 05:35:05 6.3 C 6.81 g/m*3 6.3 C 0 km/h
629 27-09-2010 05:47:05 6.4 C 6.93 g/m*3 6.4 C 0 km/h
630 27-09-2010 05:59:05 6.5 C 6.97 g/m*3 6.5 C 0 km/h
631 27-09-2010 06:11:05 6.5 C 6.97 g/m*3 6.5 C 0 km/h
632 27-09-2010 06:23:05 6.4 C 6.93 g/m*3 6.4 C 0 km/h
633 27-09-2010 06:35:05 6.2 C 6.84 g/m*3 6.2 C 0 km/h
634 27-09-2010 06:47:06 6.2 C 6.84 g/m*3 6.2 C 0 km/h
635 27-09-2010 06:59:06 6.3 C 6.88 g/m*3 6.3 C 0 km/h
636 27-09-2010 07:11:04 6.3 C 6.88 g/m*3 6.3 C 0 km/h
637 27-09-2010 07:23:04 6.6 C 7.02 g/m*3 6.6 C 0 km/h
638 27-09-2010 07:35:04 6.7 C 7.14 g/m*3 6.7 C 0 km/h
639 27-09-2010 07:47:02 6.9 C 7.24 g/m*3 6.9 C 0 km/h
640 27-09-2010 07:59:02 7.2 C 7.38 g/m*3 7.2 C 0 km/h
641 27-09-2010 08:11:02 7.5 C 7.52 g/m*3 7.5 C 0 km/h
642 27-09-2010 08:23:02 7.5 C 7.52 g/m*3 7.5 C 0 km/h
643 27-09-2010 08:35:02 7.6 C 7.57 g/m*3 7.6 C 0 km/h
644 27-09-2010 08:47:02 7.8 C 7.67 g/m*3 7.8 C 0 km/h
645 27-09-2010 08:59:02 8.1 C 7.74 g/m*3 8.1 C 0 km/h
646 27-09-2010 09:11:02 8.5 C 7.94 g/m*3 8.5 C 0 km/h
647 27-09-2010 09:23:02 8.8 C 8.09 g/m*3 8.8 C 0 km/h
648 27-09-2010 09:35:02 9.2 C 8.22 g/m*3 9.2 C 0 km/h
649 27-09-2010 09:47:01 9.6 C 8.34 g/m*3 9.6 C 0 km/h
650 27-09-2010 09:59:01 10.1 C 8.42 g/m*3 10.1 C 0 km/h
Sensor: Nr:Datum:Temp:Abs-Feuchte:Windchill:Wind:
Aussen-T/F 651 27-09-2010 10:11:02 10.4 C 8.29 g/m*3 10.4 C 0 km/h
652 27-09-2010 10:23:01 10.4 C 7.9 g/m*3 10.4 C 0 km/h
653 27-09-2010 10:35:02 10.8 C 7.51 g/m*3 10.8 C 0 km/h
654 27-09-2010 10:47:01 11 C 7.11 g/m*3 11 C 0 km/h
655 27-09-2010 10:59:01 11.2 C 6.99 g/m*3 11.2 C 0 km/h
656 27-09-2010 11:11:02 11.7 C 7.01 g/m*3 11.7 C 0 km/h
657 27-09-2010 11:23:01 11.8 C 6.74 g/m*3 11.8 C 0 km/h
658 27-09-2010 11:35:02 12.2 C 6.8 g/m*3 12.2 C 0 km/h
659 27-09-2010 11:47:01 12 C 6.61 g/m*3 12 C 0 km/h
660 27-09-2010 11:59:01 12.2 C 6.8 g/m*3 12.2 C 0 km/h
661 27-09-2010 12:11:02 12.4 C 6.77 g/m*3 12.4 C 0 km/h
662 27-09-2010 12:23:01 12.8 C 6.94 g/m*3 12.8 C 0 km/h
663 27-09-2010 12:35:02 12.8 C 6.83 g/m*3 12.8 C 0 km/h
664 27-09-2010 12:47:01 13 C 6.8 g/m*3 13 C 0 km/h
665 27-09-2010 12:59:01 12.9 C 6.76 g/m*3 12.9 C 0 km/h
666 27-09-2010 13:11:02 13.1 C 6.73 g/m*3 13.1 C 0 km/h
667 27-09-2010 13:23:02 13.4 C 6.97 g/m*3 13.4 C 0 km/h
668 27-09-2010 13:35:01 13.6 C 6.71 g/m*3 13.6 C 0 km/h
669 27-09-2010 13:47:02 13.6 C 6.71 g/m*3 13.6 C 0 km/h
670 27-09-2010 13:59:02 13.7 C 6.51 g/m*3 13.7 C 0 km/h
671 27-09-2010 14:11:01 13.4 C 6.51 g/m*3 13.4 C 0 km/h
672 27-09-2010 14:23:02 13.3 C 6.7 g/m*3 13.3 C 0 km/h
673 27-09-2010 14:35:01 13.4 C 6.74 g/m*3 13.4 C 0 km/h
674 27-09-2010 14:47:03 13.2 C 6.77 g/m*3 13.2 C 0 km/h
675 27-09-2010 14:59:03 13 C 6.58 g/m*3 13 C 0 km/h
Sensor: Nr:Datum:Temp:Abs-Feuchte:Windchill:Wind:
Aussen-T/F 676 27-09-2010 15:11:02 13.4 C 6.74 g/m*3 13.4 C 0 km/h
677 27-09-2010 15:23:02 13.6 C 6.59 g/m*3 13.6 C 0 km/h
678 27-09-2010 15:35:02 13.6 C 6.47 g/m*3 13.6 C 0 km/h
679 27-09-2010 15:47:02 13.2 C 6.66 g/m*3 13.2 C 0 km/h
680 27-09-2010 15:59:02 13.2 C 6.77 g/m*3 13.2 C 0 km/h
681 27-09-2010 16:11:01 13.4 C 6.97 g/m*3 13.4 C 0 km/h
682 27-09-2010 16:23:02 13.4 C 7.44 g/m*3 13.4 C 0 km/h
683 27-09-2010 16:35:02 13.4 C 7.44 g/m*3 13.4 C 0 km/h
684 27-09-2010 16:47:01 13.3 C 7.05 g/m*3 13.3 C 0 km/h
685 27-09-2010 16:59:01 13.4 C 7.09 g/m*3 13.4 C 0 km/h
686 27-09-2010 17:11:01 13.2 C 7.58 g/m*3 13.2 C 0 km/h
687 27-09-2010 17:23:01 13 C 7.6 g/m*3 13 C 0 km/h
688 27-09-2010 17:35:02 12.8 C 7.73 g/m*3 12.8 C 0 km/h
689 27-09-2010 17:47:02 12.8 C 7.84 g/m*3 12.8 C 0 km/h
690 27-09-2010 17:59:02 12.7 C 7.68 g/m*3 12.7 C 0 km/h
691 27-09-2010 18:11:02 12.5 C 7.59 g/m*3 12.5 C 0 km/h
692 27-09-2010 18:23:01 12.3 C 7.71 g/m*3 12.3 C 0 km/h
693 27-09-2010 18:35:02 11.9 C 7.73 g/m*3 11.9 C 0 km/h
694 27-09-2010 18:47:02 11.7 C 7.74 g/m*3 11.7 C 0 km/h
695 27-09-2010 18:59:02 11.3 C 7.85 g/m*3 11.3 C 0 km/h
696 27-09-2010 19:11:02 10.8 C 8.01 g/m*3 10.8 C 0 km/h
697 27-09-2010 19:23:02 10.7 C 8.15 g/m*3 10.7 C 0 km/h
698 27-09-2010 19:35:02 10.5 C 8.15 g/m*3 10.5 C 0 km/h
699 27-09-2010 19:47:02 10.5 C 8.15 g/m*3 10.5 C 0 km/h
700 27-09-2010 19:59:02 10.4 C 8.19 g/m*3 10.4 C 0 km/h
Sensor: Nr:Datum:Temp:Abs-Feuchte:Windchill:Wind:
Aussen-T/F 701 27-09-2010 20:11:02 10.3 C 8.24 g/m*3 10.3 C 0 km/h
702 27-09-2010 20:23:02 10.3 C 8.33 g/m*3 10.3 C 0 km/h
703 27-09-2010 20:35:02 10.3 C 8.43 g/m*3 10.3 C 0 km/h
704 27-09-2010 20:47:01 10.3 C 8.43 g/m*3 10.3 C 0 km/h
705 27-09-2010 20:59:01 10.3 C 8.52 g/m*3 10.3 C 0 km/h
706 27-09-2010 21:11:02 10.4 C 8.58 g/m*3 10.4 C 0 km/h
707 27-09-2010 21:23:01 10.2 C 8.47 g/m*3 10.2 C 0 km/h
708 27-09-2010 21:35:02 10.3 C 8.52 g/m*3 10.3 C 0 km/h
709 27-09-2010 21:47:02 10.4 C 8.58 g/m*3 10.4 C 0 km/h
710 27-09-2010 21:59:03 10.4 C 8.58 g/m*3 10.4 C 0 km/h
711 27-09-2010 22:11:02 10.4 C 8.58 g/m*3 10.4 C 0 km/h
712 27-09-2010 22:24:10 10.4 C 8.67 g/m*3 10.4 C 0 km/h
713 27-09-2010 22:36:10 10.2 C 8.56 g/m*3 10.2 C 0 km/h
714 27-09-2010 22:48:10 10.2 C 8.56 g/m*3 10.2 C 0 km/h
715 27-09-2010 23:00:10 10.2 C 8.56 g/m*3 10.2 C 0 km/h
716 27-09-2010 23:12:10 10.2 C 8.66 g/m*3 10.2 C 0 km/h
717 27-09-2010 23:24:10 10.2 C 8.66 g/m*3 10.2 C 0 km/h
718 27-09-2010 23:36:10 10.1 C 8.61 g/m*3 10.1 C 0 km/h
719 27-09-2010 23:48:10 10.1 C 8.7 g/m*3 10.1 C 0 km/h
720 28-09-2010 00:00:10 10.1 C 8.7 g/m*3 10.1 C 0 km/h
721 28-09-2010 00:12:10 10 C 8.64 g/m*3 10 C 0 km/h
722 28-09-2010 00:24:10 10 C 8.64 g/m*3 10 C 0 km/h
723 28-09-2010 00:36:10 10 C 8.64 g/m*3 10 C 0 km/h
724 28-09-2010 00:48:10 9.9 C 8.78 g/m*3 9.9 C 0 km/h
725 28-09-2010 01:00:10 10 C 8.74 g/m*3 10 C 0 km/h
Sensor: Nr:Datum:Temp:Abs-Feuchte:Windchill:Wind:
Aussen-T/F 726 28-09-2010 01:12:11 10 C 8.74 g/m*3 10 C 0 km/h
727 28-09-2010 01:24:11 10 C 8.74 g/m*3 10 C 0 km/h
728 28-09-2010 01:36:11 10 C 8.74 g/m*3 10 C 0 km/h
729 28-09-2010 01:48:11 9.9 C 8.78 g/m*3 9.9 C 0 km/h
730 28-09-2010 02:00:11 9.9 C 8.78 g/m*3 9.9 C 0 km/h
731 28-09-2010 02:12:11 9.9 C 8.78 g/m*3 9.9 C 0 km/h
732 28-09-2010 02:24:11 9.9 C 8.78 g/m*3 9.9 C 0 km/h
733 28-09-2010 02:36:11 9.9 C 8.78 g/m*3 9.9 C 0 km/h
734 28-09-2010 02:48:11 9.9 C 8.78 g/m*3 9.9 C 0 km/h
735 28-09-2010 03:00:11 9.9 C 8.87 g/m*3 9.9 C 0 km/h
736 28-09-2010 03:12:11 9.9 C 8.87 g/m*3 9.9 C 0 km/h
737 28-09-2010 03:24:11 9.9 C 8.87 g/m*3 9.9 C 0 km/h
738 28-09-2010 03:36:12 9.9 C 8.87 g/m*3 9.9 C 0 km/h
739 28-09-2010 03:48:12 9.9 C 8.87 g/m*3 9.9 C 0 km/h
740 28-09-2010 04:00:12 9.9 C 8.87 g/m*3 9.9 C 0 km/h
741 28-09-2010 04:12:12 9.9 C 8.87 g/m*3 9.9 C 0 km/h
742 28-09-2010 04:24:12 9.9 C 8.87 g/m*3 9.9 C 0 km/h
743 28-09-2010 04:36:12 9.9 C 8.87 g/m*3 9.9 C 0 km/h
744 28-09-2010 04:48:12 10 C 8.83 g/m*3 10 C 0 km/h
745 28-09-2010 05:00:12 10 C 8.93 g/m*3 10 C 0 km/h
746 28-09-2010 05:12:12 10 C 8.93 g/m*3 10 C 0 km/h
747 28-09-2010 05:24:12 10 C 8.93 g/m*3 10 C 0 km/h
748 28-09-2010 05:36:12 10 C 8.93 g/m*3 10 C 0 km/h
749 28-09-2010 05:48:12 10 C 8.93 g/m*3 10 C 0 km/h
750 28-09-2010 06:00:12 10.1 C 8.98 g/m*3 10.1 C 0 km/h
Sensor: Nr:Datum:Temp:Abs-Feuchte:Windchill:Wind:
Aussen-T/F 751 28-09-2010 06:12:12 10.1 C 8.98 g/m*3 10.1 C 0 km/h
752 28-09-2010 06:24:12 10.1 C 8.98 g/m*3 10.1 C 0 km/h
753 28-09-2010 06:36:12 10.1 C 8.98 g/m*3 10.1 C 0 km/h
754 28-09-2010 06:48:12 10 C 8.93 g/m*3 10 C 0 km/h
755 28-09-2010 07:00:12 10 C 8.93 g/m*3 10 C 0 km/h
756 28-09-2010 07:12:12 10 C 8.93 g/m*3 10 C 0 km/h
757 28-09-2010 07:24:12 10 C 8.93 g/m*3 10 C 0 km/h
758 28-09-2010 07:36:13 10 C 8.93 g/m*3 10 C 0 km/h
759 28-09-2010 07:48:01 10 C 8.93 g/m*3 10 C 0 km/h
760 28-09-2010 08:00:01 10 C 8.93 g/m*3 10 C 0 km/h
761 28-09-2010 08:12:02 10 C 8.93 g/m*3 10 C 0 km/h
762 28-09-2010 08:24:02 10 C 8.93 g/m*3 10 C 0 km/h
763 28-09-2010 08:36:02 10.1 C 8.98 g/m*3 10.1 C 0 km/h
764 28-09-2010 08:48:03 10.1 C 8.98 g/m*3 10.1 C 0 km/h
765 28-09-2010 09:00:03 10.1 C 8.98 g/m*3 10.1 C 0 km/h
766 28-09-2010 09:12:03 10.2 C 9.04 g/m*3 10.2 C 0 km/h
767 28-09-2010 09:24:02 10.2 C 9.04 g/m*3 10.2 C 0 km/h
768 28-09-2010 09:36:02 10.3 C 9.1 g/m*3 10.3 C 0 km/h
769 28-09-2010 09:48:02 10.4 C 9.16 g/m*3 10.4 C 0 km/h
770 28-09-2010 10:00:02 10.4 C 9.16 g/m*3 10.4 C 0 km/h
771 28-09-2010 10:12:02 10.5 C 9.21 g/m*3 10.5 C 0 km/h
772 28-09-2010 10:24:01 10.5 C 9.21 g/m*3 10.5 C 0 km/h
773 28-09-2010 10:36:02 10.7 C 9.33 g/m*3 10.7 C 0 km/h
774 28-09-2010 10:48:02 10.8 C 9.39 g/m*3 10.8 C 0 km/h
775 28-09-2010 11:00:02 11 C 9.51 g/m*3 11 C 0 km/h
Sensor: Nr:Datum:Temp:Abs-Feuchte:Windchill:Wind:
Aussen-T/F 776 28-09-2010 11:12:02 11 C 9.51 g/m*3 11 C 0 km/h
777 28-09-2010 11:24:02 11.2 C 9.63 g/m*3 11.2 C 0 km/h
778 28-09-2010 11:36:02 11.3 C 9.69 g/m*3 11.3 C 0 km/h
779 28-09-2010 11:48:02 11.4 C 9.75 g/m*3 11.4 C 0 km/h
780 28-09-2010 12:00:02 11.4 C 9.75 g/m*3 11.4 C 0 km/h
781 28-09-2010 12:12:02 11.4 C 9.65 g/m*3 11.4 C 0 km/h
782 28-09-2010 12:24:02 11.4 C 9.65 g/m*3 11.4 C 0 km/h
783 28-09-2010 12:36:02 11.5 C 9.71 g/m*3 11.5 C 0 km/h
784 28-09-2010 12:48:02 11.7 C 9.83 g/m*3 11.7 C 0 km/h
785 28-09-2010 13:00:02 11.6 C 9.67 g/m*3 11.6 C 0 km/h
786 28-09-2010 13:12:02 11.6 C 9.67 g/m*3 11.6 C 0 km/h
787 28-09-2010 13:24:03 11.8 C 9.79 g/m*3 11.8 C 0 km/h
788 28-09-2010 13:36:02 11.8 C 9.68 g/m*3 11.8 C 0 km/h
789 28-09-2010 13:48:03 11.9 C 9.74 g/m*3 11.9 C 0 km/h
790 28-09-2010 14:00:03 11.9 C 9.74 g/m*3 11.9 C 0 km/h
791 28-09-2010 14:12:02 11.8 C 9.68 g/m*3 11.8 C 0 km/h
792 28-09-2010 14:24:02 11.7 C 9.62 g/m*3 11.7 C 0 km/h
793 28-09-2010 14:36:02 11.7 C 9.62 g/m*3 11.7 C 0 km/h
794 28-09-2010 14:48:02 11.7 C 9.62 g/m*3 11.7 C 0 km/h
795 28-09-2010 15:00:02 11.7 C 9.62 g/m*3 11.7 C 0 km/h
796 28-09-2010 15:12:02 11.7 C 9.73 g/m*3 11.7 C 0 km/h
797 28-09-2010 15:24:02 11.7 C 9.73 g/m*3 11.7 C 0 km/h
798 28-09-2010 15:36:02 11.8 C 9.79 g/m*3 11.8 C 0 km/h
799 28-09-2010 15:48:02 11.8 C 9.79 g/m*3 11.8 C 0 km/h
800 28-09-2010 16:00:02 11.8 C 9.79 g/m*3 11.8 C 0 km/h
Sensor: Nr:Datum:Temp:Abs-Feuchte:Windchill:Wind:
Aussen-T/F 801 28-09-2010 16:12:01 11.8 C 9.79 g/m*3 11.8 C 0 km/h
802 28-09-2010 16:24:01 11.8 C 9.79 g/m*3 11.8 C 0 km/h
803 28-09-2010 16:36:02 11.9 C 9.96 g/m*3 11.9 C 0 km/h
804 28-09-2010 16:48:02 11.9 C 9.96 g/m*3 11.9 C 0 km/h
805 28-09-2010 17:00:02 11.9 C 9.96 g/m*3 11.9 C 0 km/h
806 28-09-2010 17:12:02 12 C 10.02 g/m*3 12 C 0 km/h
807 28-09-2010 17:24:02 12 C 10.02 g/m*3 12 C 0 km/h
808 28-09-2010 17:36:02 12 C 10.02 g/m*3 12 C 0 km/h
809 28-09-2010 17:48:02 12 C 10.02 g/m*3 12 C 0 km/h
810 28-09-2010 18:00:02 11.9 C 9.96 g/m*3 11.9 C 0 km/h
811 28-09-2010 18:12:02 11.9 C 9.96 g/m*3 11.9 C 0 km/h
812 28-09-2010 18:24:02 11.9 C 10.06 g/m*3 11.9 C 0 km/h
813 28-09-2010 18:36:02 11.8 C 10 g/m*3 11.8 C 0 km/h
814 28-09-2010 18:48:01 11.8 C 10 g/m*3 11.8 C 0 km/h
815 28-09-2010 19:00:01 11.8 C 10 g/m*3 11.8 C 0 km/h
816 28-09-2010 19:12:02 11.7 C 9.94 g/m*3 11.7 C 0 km/h
817 28-09-2010 19:24:01 11.7 C 9.94 g/m*3 11.7 C 0 km/h
818 28-09-2010 19:36:01 11.7 C 9.94 g/m*3 11.7 C 0 km/h
819 28-09-2010 19:48:01 11.7 C 9.94 g/m*3 11.7 C 0 km/h
820 28-09-2010 20:00:01 11.6 C 9.87 g/m*3 11.6 C 0 km/h
821 28-09-2010 20:12:02 11.6 C 9.87 g/m*3 11.6 C 0 km/h
822 28-09-2010 20:24:02 11.6 C 9.87 g/m*3 11.6 C 0 km/h
823 28-09-2010 20:36:01 11.6 C 9.87 g/m*3 11.6 C 0 km/h
824 28-09-2010 20:48:01 11.6 C 9.87 g/m*3 11.6 C 0 km/h
825 28-09-2010 21:00:01 11.6 C 9.87 g/m*3 11.6 C 0 km/h
Sensor: Nr:Datum:Temp:Abs-Feuchte:Windchill:Wind:
Aussen-T/F 826 28-09-2010 21:12:01 11.6 C 9.87 g/m*3 11.6 C 0 km/h
827 28-09-2010 21:24:02 11.6 C 9.87 g/m*3 11.6 C 0 km/h
828 28-09-2010 21:36:01 11.5 C 9.81 g/m*3 11.5 C 0 km/h
829 28-09-2010 21:48:03 11.6 C 9.87 g/m*3 11.6 C 0 km/h
830 28-09-2010 22:00:03 11.6 C 9.87 g/m*3 11.6 C 0 km/h
831 28-09-2010 22:12:02 11.6 C 9.87 g/m*3 11.6 C 0 km/h
832 28-09-2010 22:24:03 11.6 C 9.87 g/m*3 11.6 C 0 km/h
833 28-09-2010 22:36:02 11.7 C 9.94 g/m*3 11.7 C 0 km/h
834 28-09-2010 22:48:03 11.6 C 9.87 g/m*3 11.6 C 0 km/h
835 28-09-2010 23:00:03 11.6 C 9.87 g/m*3 11.6 C 0 km/h
836 28-09-2010 23:12:02 11.6 C 9.87 g/m*3 11.6 C 0 km/h
837 28-09-2010 23:24:02 11.6 C 9.87 g/m*3 11.6 C 0 km/h
838 28-09-2010 23:36:02 11.6 C 9.87 g/m*3 11.6 C 0 km/h
839 28-09-2010 23:48:02 11.6 C 9.87 g/m*3 11.6 C 0 km/h
840 29-09-2010 00:00:02 11.6 C 9.87 g/m*3 11.6 C 0 km/h
841 29-09-2010 00:12:02 11.7 C 9.94 g/m*3 11.7 C 0 km/h
842 29-09-2010 00:24:02 11.6 C 9.87 g/m*3 11.6 C 0 km/h
843 29-09-2010 00:36:02 11.7 C 9.94 g/m*3 11.7 C 0 km/h
844 29-09-2010 00:48:02 11.6 C 9.87 g/m*3 11.6 C 0 km/h
845 29-09-2010 01:00:02 11.7 C 9.94 g/m*3 11.7 C 0 km/h
846 29-09-2010 01:12:03 11.6 C 9.87 g/m*3 11.6 C 0 km/h
847 29-09-2010 01:24:02 11.6 C 9.87 g/m*3 11.6 C 0 km/h
848 29-09-2010 01:36:02 11.6 C 9.87 g/m*3 11.6 C 0 km/h
849 29-09-2010 01:48:01 11.6 C 9.87 g/m*3 11.6 C 0 km/h
850 29-09-2010 02:00:01 11.6 C 9.87 g/m*3 11.6 C 0 km/h
Sensor: Nr:Datum:Temp:Abs-Feuchte:Windchill:Wind:
Aussen-T/F 851 29-09-2010 02:12:02 11.6 C 9.87 g/m*3 11.6 C 0 km/h
852 29-09-2010 02:24:01 11.5 C 9.81 g/m*3 11.5 C 0 km/h
853 29-09-2010 02:36:02 11.5 C 9.81 g/m*3 11.5 C 0 km/h
854 29-09-2010 02:48:01 11.6 C 9.87 g/m*3 11.6 C 0 km/h
855 29-09-2010 03:00:01 11.4 C 9.75 g/m*3 11.4 C 0 km/h
856 29-09-2010 03:12:01 11.3 C 9.69 g/m*3 11.3 C 0 km/h
857 29-09-2010 03:24:02 11.4 C 9.75 g/m*3 11.4 C 0 km/h
858 29-09-2010 03:36:01 11.7 C 9.94 g/m*3 11.7 C 0 km/h
859 29-09-2010 03:48:01 11.6 C 9.87 g/m*3 11.6 C 0 km/h
860 29-09-2010 04:00:01 11.6 C 9.87 g/m*3 11.6 C 0 km/h
861 29-09-2010 04:12:02 11.6 C 9.87 g/m*3 11.6 C 0 km/h
862 29-09-2010 04:24:01 11.6 C 9.87 g/m*3 11.6 C 0 km/h
863 29-09-2010 04:36:01 11.3 C 9.69 g/m*3 11.3 C 0 km/h
864 29-09-2010 04:48:01 11.3 C 9.69 g/m*3 11.3 C 0 km/h
865 29-09-2010 05:00:01 11.4 C 9.75 g/m*3 11.4 C 0 km/h
866 29-09-2010 05:12:02 11.4 C 9.75 g/m*3 11.4 C 0 km/h
867 29-09-2010 05:24:01 11.4 C 9.75 g/m*3 11.4 C 0 km/h
868 29-09-2010 05:36:01 11.4 C 9.75 g/m*3 11.4 C 0 km/h
869 29-09-2010 05:48:01 11.4 C 9.75 g/m*3 11.4 C 0 km/h
870 29-09-2010 06:00:01 11.7 C 9.94 g/m*3 11.7 C 0 km/h
871 29-09-2010 06:12:01 11.6 C 9.87 g/m*3 11.6 C 0 km/h
872 29-09-2010 06:24:02 11.5 C 9.81 g/m*3 11.5 C 0 km/h
873 29-09-2010 06:36:01 11.5 C 9.81 g/m*3 11.5 C 0 km/h
874 29-09-2010 06:48:02 11.3 C 9.69 g/m*3 11.3 C 0 km/h
875 29-09-2010 07:00:02 11.1 C 9.57 g/m*3 11.1 C 0 km/h
Sensor: Nr:Datum:Temp:Abs-Feuchte:Windchill:Wind:
Aussen-T/F 876 29-09-2010 07:12:01 10.8 C 9.39 g/m*3 10.8 C 0 km/h
877 29-09-2010 07:24:02 11 C 9.51 g/m*3 11 C 0 km/h
878 29-09-2010 07:36:01 11.2 C 9.63 g/m*3 11.2 C 0 km/h
879 29-09-2010 07:48:02 11.1 C 9.57 g/m*3 11.1 C 0 km/h
880 29-09-2010 08:00:02 11 C 9.51 g/m*3 11 C 0 km/h
881 29-09-2010 08:12:01 11.2 C 9.63 g/m*3 11.2 C 0 km/h
882 29-09-2010 08:24:01 11.2 C 9.63 g/m*3 11.2 C 0 km/h
883 29-09-2010 08:36:01 11.1 C 9.57 g/m*3 11.1 C 0 km/h
884 29-09-2010 08:48:02 11.4 C 9.75 g/m*3 11.4 C 0 km/h
885 29-09-2010 09:00:02 11.6 C 9.87 g/m*3 11.6 C 0 km/h
886 29-09-2010 09:12:01 11.2 C 9.53 g/m*3 11.2 C 0 km/h
887 29-09-2010 09:24:01 10.8 C 9.19 g/m*3 10.8 C 0 km/h
888 29-09-2010 09:36:02 11.7 C 9.62 g/m*3 11.7 C 0 km/h
889 29-09-2010 09:48:01 11.9 C 9.64 g/m*3 11.9 C 0 km/h
890 29-09-2010 10:00:01 12.1 C 9.22 g/m*3 12.1 C 0 km/h
891 29-09-2010 10:12:02 12.5 C 8.91 g/m*3 12.5 C 0 km/h
892 29-09-2010 10:24:01 12.9 C 8.79 g/m*3 12.9 C 0 km/h
893 29-09-2010 10:36:02 13.4 C 8.95 g/m*3 13.4 C 0 km/h
894 29-09-2010 10:48:01 13.7 C 9 g/m*3 13.7 C 0 km/h
895 29-09-2010 11:00:01 13.8 C 8.94 g/m*3 13.8 C 0 km/h
896 29-09-2010 11:12:02 13.7 C 8.53 g/m*3 13.7 C 0 km/h
897 29-09-2010 11:24:01 13.8 C 8.46 g/m*3 13.8 C 0 km/h
898 29-09-2010 11:36:01 14.1 C 8.01 g/m*3 14.1 C 0 km/h
899 29-09-2010 11:48:01 14.4 C 8.16 g/m*3 14.4 C 0 km/h
900 29-09-2010 12:00:01 14.5 C 8.21 g/m*3 14.5 C 0 km/h
Sensor: Nr:Datum:Temp:Abs-Feuchte:Windchill:Wind:
Aussen-T/F 901 29-09-2010 12:12:01 14.6 C 8.01 g/m*3 14.6 C 0 km/h
902 29-09-2010 12:24:01 14.1 C 7.52 g/m*3 14.1 C 0 km/h
903 29-09-2010 12:36:01 14 C 8.08 g/m*3 14 C 0 km/h
904 29-09-2010 12:48:01 14.8 C 8.36 g/m*3 14.8 C 0 km/h
905 29-09-2010 13:00:01 15.4 C 8.15 g/m*3 15.4 C 0 km/h
906 29-09-2010 13:12:01 15.7 C 7.89 g/m*3 15.7 C 0 km/h
907 29-09-2010 13:24:02 15.8 C 7.81 g/m*3 15.8 C 0 km/h
908 29-09-2010 13:36:01 15.9 C 7.99 g/m*3 15.9 C 0 km/h
909 29-09-2010 13:48:02 15.9 C 7.58 g/m*3 15.9 C 0 km/h
910 29-09-2010 14:00:02 16.3 C 7.35 g/m*3 16.3 C 0 km/h
911 29-09-2010 14:12:01 15.6 C 7.58 g/m*3 15.6 C 0 km/h
912 29-09-2010 14:24:02 15.8 C 7.94 g/m*3 15.8 C 0 km/h
913 29-09-2010 14:36:01 17.4 C 7.85 g/m*3 17.4 C 0 km/h
914 29-09-2010 14:48:02 19 C 7.33 g/m*3 19 C 0 km/h
915 29-09-2010 15:00:02 18.8 C 6.76 g/m*3 18.8 C 0 km/h
916 29-09-2010 15:12:01 18.8 C 6.93 g/m*3 18.8 C 0 km/h
917 29-09-2010 15:24:01 18.9 C 6.97 g/m*3 18.9 C 0 km/h
918 29-09-2010 15:36:02 19.6 C 6.92 g/m*3 19.6 C 0 km/h
919 29-09-2010 15:48:01 19.7 C 6.79 g/m*3 19.7 C 0 km/h
920 29-09-2010 16:00:02 18.8 C 7.41 g/m*3 18.8 C 0 km/h
921 29-09-2010 16:12:01 18.1 C 7.26 g/m*3 18.1 C 0 km/h
922 29-09-2010 16:24:01 18.1 C 7.57 g/m*3 18.1 C 0 km/h
923 29-09-2010 16:36:02 17.6 C 7.95 g/m*3 17.6 C 0 km/h
924 29-09-2010 16:48:01 18.1 C 7.88 g/m*3 18.1 C 0 km/h
925 29-09-2010 17:00:02 19 C 7.33 g/m*3 19 C 0 km/h
Sensor: Nr:Datum:Temp:Abs-Feuchte:Windchill:Wind:
Aussen-T/F 926 29-09-2010 17:12:01 19.4 C 7.01 g/m*3 19.4 C 0 km/h
927 29-09-2010 17:24:01 18.6 C 7.16 g/m*3 18.6 C 0 km/h
928 29-09-2010 17:36:02 17.6 C 7.95 g/m*3 17.6 C 0 km/h
929 29-09-2010 17:48:01 16.9 C 8.05 g/m*3 16.9 C 0 km/h
930 29-09-2010 18:00:01 15.9 C 7.58 g/m*3 15.9 C 0 km/h
931 29-09-2010 18:12:04 15.2 C 7.92 g/m*3 15.2 C 0 km/h
932 29-09-2010 18:24:02 14.4 C 7.91 g/m*3 14.4 C 0 km/h
933 29-09-2010 18:36:02 14 C 7.84 g/m*3 14 C 0 km/h
934 29-09-2010 18:48:01 13.6 C 7.89 g/m*3 13.6 C 0 km/h
935 29-09-2010 19:00:01 13.2 C 7.81 g/m*3 13.2 C 0 km/h
936 29-09-2010 19:12:01 13.1 C 7.76 g/m*3 13.1 C 0 km/h
937 29-09-2010 19:24:01 13 C 7.71 g/m*3 13 C 0 km/h
938 29-09-2010 19:36:02 13 C 7.6 g/m*3 13 C 0 km/h
939 29-09-2010 19:48:01 13.1 C 7.53 g/m*3 13.1 C 0 km/h
940 29-09-2010 20:00:01 13.3 C 7.63 g/m*3 13.3 C 0 km/h
941 29-09-2010 20:12:02 13.2 C 7.81 g/m*3 13.2 C 0 km/h
942 29-09-2010 20:24:01 13.2 C 7.81 g/m*3 13.2 C 0 km/h
943 29-09-2010 20:36:02 13 C 7.6 g/m*3 13 C 0 km/h
944 29-09-2010 20:48:01 12.9 C 7.66 g/m*3 12.9 C 0 km/h
945 29-09-2010 21:00:01 12.9 C 7.66 g/m*3 12.9 C 0 km/h
946 29-09-2010 21:12:02 12.8 C 7.84 g/m*3 12.8 C 0 km/h
947 29-09-2010 21:24:01 12.4 C 7.98 g/m*3 12.4 C 0 km/h
948 29-09-2010 21:38:05 12.2 C 8.09 g/m*3 12.2 C 0 km/h
949 29-09-2010 21:50:05 12.2 C 8.09 g/m*3 12.2 C 0 km/h
950 29-09-2010 22:02:05 12.3 C 8.25 g/m*3 12.3 C 0 km/h
Sensor: Nr:Datum:Temp:Abs-Feuchte:Windchill:Wind:
Aussen-T/F 951 29-09-2010 22:14:05 12.4 C 8.3 g/m*3 12.4 C 0 km/h
952 29-09-2010 22:26:05 12.4 C 8.41 g/m*3 12.4 C 0 km/h
953 29-09-2010 22:38:06 12.5 C 8.47 g/m*3 12.5 C 0 km/h
954 29-09-2010 22:50:06 12.3 C 8.36 g/m*3 12.3 C 0 km/h
955 29-09-2010 23:02:06 12 C 8.21 g/m*3 12 C 0 km/h
956 29-09-2010 23:14:06 11.8 C 8.31 g/m*3 11.8 C 0 km/h
957 29-09-2010 23:26:06 11.8 C 8.42 g/m*3 11.8 C 0 km/h
958 29-09-2010 23:38:06 12 C 8.31 g/m*3 12 C 0 km/h
959 29-09-2010 23:50:06 12.2 C 8.42 g/m*3 12.2 C 0 km/h
960 30-09-2010 00:02:06 12.4 C 8.52 g/m*3 12.4 C 0 km/h
961 30-09-2010 00:14:06 12.3 C 8.47 g/m*3 12.3 C 0 km/h
962 30-09-2010 00:26:06 12.1 C 8.36 g/m*3 12.1 C 0 km/h
963 30-09-2010 00:38:06 12.1 C 8.47 g/m*3 12.1 C 0 km/h
964 30-09-2010 00:50:06 11.9 C 8.37 g/m*3 11.9 C 0 km/h
965 30-09-2010 01:02:06 11.7 C 8.37 g/m*3 11.7 C 0 km/h
966 30-09-2010 01:14:06 11.8 C 7.89 g/m*3 11.8 C 0 km/h
967 30-09-2010 01:26:06 11.8 C 7.79 g/m*3 11.8 C 0 km/h
968 30-09-2010 01:38:06 12 C 7.46 g/m*3 12 C 0 km/h
969 30-09-2010 01:50:06 12 C 7.25 g/m*3 12 C 0 km/h
970 30-09-2010 02:02:06 12.1 C 7.4 g/m*3 12.1 C 0 km/h
971 30-09-2010 02:14:06 11.5 C 7.54 g/m*3 11.5 C 0 km/h
972 30-09-2010 02:26:06 11.4 C 7.7 g/m*3 11.4 C 0 km/h
973 30-09-2010 02:38:06 11.1 C 7.66 g/m*3 11.1 C 0 km/h
974 30-09-2010 02:50:07 11.2 C 7.8 g/m*3 11.2 C 0 km/h
975 30-09-2010 03:02:07 11.3 C 7.85 g/m*3 11.3 C 0 km/h
Sensor: Nr:Datum:Temp:Abs-Feuchte:Windchill:Wind:
Aussen-T/F 976 30-09-2010 03:14:07 11.2 C 7.91 g/m*3 11.2 C 0 km/h
977 30-09-2010 03:26:07 11 C 7.81 g/m*3 11 C 0 km/h
978 30-09-2010 03:38:07 11.1 C 7.86 g/m*3 11.1 C 0 km/h
979 30-09-2010 03:50:07 11.2 C 7.91 g/m*3 11.2 C 0 km/h
980 30-09-2010 04:02:07 11.3 C 7.96 g/m*3 11.3 C 0 km/h
981 30-09-2010 04:14:07 11.2 C 7.91 g/m*3 11.2 C 0 km/h
982 30-09-2010 04:26:07 11 C 7.81 g/m*3 11 C 0 km/h
983 30-09-2010 04:38:07 10.8 C 7.81 g/m*3 10.8 C 0 km/h
984 30-09-2010 04:50:07 10.8 C 7.91 g/m*3 10.8 C 0 km/h
985 30-09-2010 05:02:07 10.8 C 7.91 g/m*3 10.8 C 0 km/h
986 30-09-2010 05:14:07 10.8 C 7.91 g/m*3 10.8 C 0 km/h
987 30-09-2010 05:26:07 10.8 C 7.81 g/m*3 10.8 C 0 km/h
988 30-09-2010 05:38:07 10.7 C 7.76 g/m*3 10.7 C 0 km/h
989 30-09-2010 05:50:07 10.7 C 7.56 g/m*3 10.7 C 0 km/h
990 30-09-2010 06:02:07 10.8 C 7.31 g/m*3 10.8 C 0 km/h
991 30-09-2010 06:14:07 10.8 C 7.31 g/m*3 10.8 C 0 km/h
992 30-09-2010 06:26:07 10.7 C 7.27 g/m*3 10.7 C 0 km/h
993 30-09-2010 06:38:05 10.6 C 7.32 g/m*3 10.6 C 0 km/h
994 30-09-2010 06:50:02 10.6 C 7.42 g/m*3 10.6 C 0 km/h
995 30-09-2010 07:02:02 10.7 C 7.56 g/m*3 10.7 C 0 km/h
996 30-09-2010 07:14:02 10.7 C 7.66 g/m*3 10.7 C 0 km/h
997 30-09-2010 07:26:02 10.6 C 7.61 g/m*3 10.6 C 0 km/h
998 30-09-2010 07:38:02 10.6 C 7.71 g/m*3 10.6 C 0 km/h
999 30-09-2010 07:50:01 10.7 C 7.76 g/m*3 10.7 C 0 km/h
1000 30-09-2010 08:02:01 10.7 C 7.66 g/m*3 10.7 C 0 km/h
Sensor: Nr:Datum:Temp:Abs-Feuchte:Windchill:Wind:
Aussen-T/F 1001 30-09-2010 08:14:02 10.9 C 7.76 g/m*3 10.9 C 0 km/h
1002 30-09-2010 08:26:01 10.9 C 7.76 g/m*3 10.9 C 0 km/h
1003 30-09-2010 08:38:01 11 C 7.81 g/m*3 11 C 0 km/h
1004 30-09-2010 08:50:01 11 C 7.81 g/m*3 11 C 0 km/h
1005 30-09-2010 09:02:01 11.2 C 7.91 g/m*3 11.2 C 0 km/h
1006 30-09-2010 09:14:01 11.4 C 8.01 g/m*3 11.4 C 0 km/h
1007 30-09-2010 09:26:01 11.4 C 7.8 g/m*3 11.4 C 0 km/h
1008 30-09-2010 09:38:01 11.5 C 7.75 g/m*3 11.5 C 0 km/h
1009 30-09-2010 09:50:02 11.5 C 7.85 g/m*3 11.5 C 0 km/h
1010 30-09-2010 10:02:02 11.4 C 8.01 g/m*3 11.4 C 0 km/h
1011 30-09-2010 10:14:02 11.4 C 8.11 g/m*3 11.4 C 0 km/h
1012 30-09-2010 10:26:03 11.7 C 8.37 g/m*3 11.7 C 0 km/h
1013 30-09-2010 10:38:02 11.8 C 8.42 g/m*3 11.8 C 0 km/h
1014 30-09-2010 10:50:02 11.9 C 8.47 g/m*3 11.9 C 0 km/h
1015 30-09-2010 11:02:02 12 C 8.42 g/m*3 12 C 0 km/h
1016 30-09-2010 11:14:02 12 C 8.42 g/m*3 12 C 0 km/h
1017 30-09-2010 11:26:02 11.8 C 8.42 g/m*3 11.8 C 0 km/h
1018 30-09-2010 11:38:01 11.7 C 8.47 g/m*3 11.7 C 0 km/h
1019 30-09-2010 11:50:02 11.8 C 8.63 g/m*3 11.8 C 0 km/h
1020 30-09-2010 12:02:01 11.9 C 8.79 g/m*3 11.9 C 0 km/h
1021 30-09-2010 12:14:01 11.9 C 8.9 g/m*3 11.9 C 0 km/h
1022 30-09-2010 12:26:02 12 C 8.95 g/m*3 12 C 0 km/h
1023 30-09-2010 12:38:02 12.1 C 9.01 g/m*3 12.1 C 0 km/h
1024 30-09-2010 12:50:02 12 C 9.06 g/m*3 12 C 0 km/h
1025 30-09-2010 13:02:02 12.4 C 9.4 g/m*3 12.4 C 0 km/h
Sensor: Nr:Datum:Temp:Abs-Feuchte:Windchill:Wind:
Aussen-T/F 1026 30-09-2010 13:14:02 12.6 C 9.51 g/m*3 12.6 C 0 km/h
1027 30-09-2010 13:26:02 12.6 C 9.51 g/m*3 12.6 C 0 km/h
1028 30-09-2010 13:38:02 12.6 C 9.62 g/m*3 12.6 C 0 km/h
1029 30-09-2010 13:50:01 12.7 C 9.68 g/m*3 12.7 C 0 km/h
1030 30-09-2010 14:02:02 12.9 C 9.81 g/m*3 12.9 C 0 km/h
1031 30-09-2010 14:14:02 13 C 9.87 g/m*3 13 C 0 km/h
1032 30-09-2010 14:26:01 12.8 C 9.86 g/m*3 12.8 C 0 km/h
1033 30-09-2010 14:38:01 12.9 C 9.92 g/m*3 12.9 C 0 km/h
1034 30-09-2010 14:50:01 13.1 C 10.04 g/m*3 13.1 C 0 km/h
1035 30-09-2010 15:02:02 13.2 C 10.1 g/m*3 13.2 C 0 km/h
1036 30-09-2010 15:14:03 13.2 C 10.1 g/m*3 13.2 C 0 km/h
1037 30-09-2010 15:26:01 13.4 C 10.23 g/m*3 13.4 C 0 km/h
1038 30-09-2010 15:38:01 13.3 C 10.17 g/m*3 13.3 C 0 km/h
1039 30-09-2010 15:50:01 13.2 C 9.99 g/m*3 13.2 C 0 km/h
1040 30-09-2010 16:02:01 13.5 C 10.29 g/m*3 13.5 C 0 km/h
1041 30-09-2010 16:14:01 13.5 C 10.29 g/m*3 13.5 C 0 km/h
1042 30-09-2010 16:26:02 13.6 C 10.24 g/m*3 13.6 C 0 km/h
1043 30-09-2010 16:38:01 13.3 C 10.05 g/m*3 13.3 C 0 km/h
1044 30-09-2010 16:50:03 13.1 C 9.93 g/m*3 13.1 C 0 km/h
1045 30-09-2010 17:02:02 13.1 C 9.93 g/m*3 13.1 C 0 km/h
1046 30-09-2010 17:14:02 13 C 9.98 g/m*3 13 C 0 km/h
1047 30-09-2010 17:26:02 13 C 9.98 g/m*3 13 C 0 km/h
1048 30-09-2010 17:38:02 12.9 C 10.03 g/m*3 12.9 C 0 km/h
1049 30-09-2010 17:50:02 12.8 C 9.97 g/m*3 12.8 C 0 km/h
1050 30-09-2010 18:02:02 12.7 C 9.91 g/m*3 12.7 C 0 km/h
Sensor: Nr:Datum:Temp:Abs-Feuchte:Windchill:Wind:
Aussen-T/F 1051 30-09-2010 18:14:02 12.5 C 9.78 g/m*3 12.5 C 0 km/h
1052 30-09-2010 18:26:02 12.5 C 9.78 g/m*3 12.5 C 0 km/h
1053 30-09-2010 18:38:02 12.4 C 9.83 g/m*3 12.4 C 0 km/h
1054 30-09-2010 18:50:01 12.3 C 9.77 g/m*3 12.3 C 0 km/h
1055 30-09-2010 19:02:02 12.2 C 9.71 g/m*3 12.2 C 0 km/h
1056 30-09-2010 19:14:02 12.1 C 9.76 g/m*3 12.1 C 0 km/h
1057 30-09-2010 19:26:02 12.1 C 9.76 g/m*3 12.1 C 0 km/h
1058 30-09-2010 19:38:02 12.2 C 9.82 g/m*3 12.2 C 0 km/h
1059 30-09-2010 19:50:02 12.1 C 9.87 g/m*3 12.1 C 0 km/h
1060 30-09-2010 20:02:02 12.2 C 9.93 g/m*3 12.2 C 0 km/h
1061 30-09-2010 20:14:02 12.2 C 9.93 g/m*3 12.2 C 0 km/h
1062 30-09-2010 20:26:02 12.1 C 9.87 g/m*3 12.1 C 0 km/h
1063 30-09-2010 20:38:01 12.1 C 9.87 g/m*3 12.1 C 0 km/h
1064 30-09-2010 20:50:02 12.2 C 10.04 g/m*3 12.2 C 0 km/h
1065 30-09-2010 21:02:01 12.1 C 9.97 g/m*3 12.1 C 0 km/h
1066 30-09-2010 21:14:01 12.1 C 9.97 g/m*3 12.1 C 0 km/h
1067 30-09-2010 21:26:02 12.1 C 9.97 g/m*3 12.1 C 0 km/h
1068 30-09-2010 21:38:01 12.1 C 9.97 g/m*3 12.1 C 0 km/h
1069 30-09-2010 21:50:02 12 C 9.91 g/m*3 12 C 0 km/h
1070 30-09-2010 22:02:02 12 C 9.91 g/m*3 12 C 0 km/h
1071 30-09-2010 22:14:02 12 C 9.91 g/m*3 12 C 0 km/h
1072 30-09-2010 22:26:02 11.9 C 9.96 g/m*3 11.9 C 0 km/h
1073 30-09-2010 22:38:02 11.9 C 9.96 g/m*3 11.9 C 0 km/h
1074 30-09-2010 22:50:01 12 C 9.91 g/m*3 12 C 0 km/h
1075 30-09-2010 23:03:03 12 C 9.91 g/m*3 12 C 0 km/h
Sensor: Nr:Datum:Temp:Abs-Feuchte:Windchill:Wind:
Aussen-T/F 1076 30-09-2010 23:15:03 11.9 C 9.96 g/m*3 11.9 C 0 km/h
1077 30-09-2010 23:27:03 12 C 10.02 g/m*3 12 C 0 km/h
1078 30-09-2010 23:39:03 12.1 C 10.08 g/m*3 12.1 C 0 km/h
1079 30-09-2010 23:51:03 12 C 10.02 g/m*3 12 C 0 km/h
1080 01-10-2010 00:03:03 12.1 C 10.08 g/m*3 12.1 C 0 km/h
1081 01-10-2010 00:15:03 12 C 10.02 g/m*3 12 C 0 km/h
1082 01-10-2010 00:27:03 12.1 C 10.08 g/m*3 12.1 C 0 km/h
1083 01-10-2010 00:39:03 12.1 C 10.08 g/m*3 12.1 C 0 km/h
1084 01-10-2010 00:51:03 11.8 C 10 g/m*3 11.8 C 0 km/h
1085 01-10-2010 01:03:03 11.6 C 9.87 g/m*3 11.6 C 0 km/h
1086 01-10-2010 01:15:04 11.7 C 9.94 g/m*3 11.7 C 0 km/h
1087 01-10-2010 01:27:04 11.6 C 9.87 g/m*3 11.6 C 0 km/h
1088 01-10-2010 01:39:04 11.5 C 9.81 g/m*3 11.5 C 0 km/h
1089 01-10-2010 01:51:04 11.5 C 9.81 g/m*3 11.5 C 0 km/h
1090 01-10-2010 02:03:04 11.5 C 9.81 g/m*3 11.5 C 0 km/h
1091 01-10-2010 02:15:04 11.4 C 9.75 g/m*3 11.4 C 0 km/h
1092 01-10-2010 02:27:04 11.4 C 9.75 g/m*3 11.4 C 0 km/h
1093 01-10-2010 02:39:04 11.4 C 9.75 g/m*3 11.4 C 0 km/h
1094 01-10-2010 02:51:04 11.5 C 9.81 g/m*3 11.5 C 0 km/h
1095 01-10-2010 03:03:04 11.5 C 9.81 g/m*3 11.5 C 0 km/h
1096 01-10-2010 03:15:04 11.5 C 9.81 g/m*3 11.5 C 0 km/h
1097 01-10-2010 03:27:04 11.5 C 9.81 g/m*3 11.5 C 0 km/h
1098 01-10-2010 03:39:04 11.5 C 9.81 g/m*3 11.5 C 0 km/h
1099 01-10-2010 03:51:04 11.8 C 10 g/m*3 11.8 C 0 km/h
1100 01-10-2010 04:03:04 11.7 C 9.94 g/m*3 11.7 C 0 km/h
Sensor: Nr:Datum:Temp:Abs-Feuchte:Windchill:Wind:
Aussen-T/F 1101 01-10-2010 04:15:04 11.7 C 9.94 g/m*3 11.7 C 0 km/h
1102 01-10-2010 04:27:04 11.7 C 9.94 g/m*3 11.7 C 0 km/h
1103 01-10-2010 04:39:04 11.7 C 9.94 g/m*3 11.7 C 0 km/h
1104 01-10-2010 04:51:04 11.7 C 9.94 g/m*3 11.7 C 0 km/h
1105 01-10-2010 05:03:04 11.7 C 9.94 g/m*3 11.7 C 0 km/h
1106 01-10-2010 05:15:04 11.7 C 9.94 g/m*3 11.7 C 0 km/h
1107 01-10-2010 05:27:04 11.7 C 9.94 g/m*3 11.7 C 0 km/h
1108 01-10-2010 05:39:04 11.5 C 9.81 g/m*3 11.5 C 0 km/h
1109 01-10-2010 05:51:05 11.5 C 9.81 g/m*3 11.5 C 0 km/h
1110 01-10-2010 06:03:05 11.4 C 9.75 g/m*3 11.4 C 0 km/h
1111 01-10-2010 06:15:05 11.4 C 9.75 g/m*3 11.4 C 0 km/h
1112 01-10-2010 06:27:05 11.4 C 9.75 g/m*3 11.4 C 0 km/h
1113 01-10-2010 06:39:05 11.4 C 9.75 g/m*3 11.4 C 0 km/h
1114 01-10-2010 06:51:05 11.4 C 9.75 g/m*3 11.4 C 0 km/h
1115 01-10-2010 07:03:05 11.3 C 9.69 g/m*3 11.3 C 0 km/h
1116 01-10-2010 07:15:02 11.3 C 9.69 g/m*3 11.3 C 0 km/h
1117 01-10-2010 07:27:02 11 C 9.51 g/m*3 11 C 0 km/h
1118 01-10-2010 07:39:02 10.8 C 9.39 g/m*3 10.8 C 0 km/h
1119 01-10-2010 07:51:02 10.6 C 9.27 g/m*3 10.6 C 0 km/h
1120 01-10-2010 08:03:02 10.4 C 9.16 g/m*3 10.4 C 0 km/h
1121 01-10-2010 08:15:02 10.3 C 9.1 g/m*3 10.3 C 0 km/h
1122 01-10-2010 08:27:02 10.2 C 9.04 g/m*3 10.2 C 0 km/h
1123 01-10-2010 08:39:02 10.2 C 9.04 g/m*3 10.2 C 0 km/h
1124 01-10-2010 08:51:02 10.4 C 9.16 g/m*3 10.4 C 0 km/h
1125 01-10-2010 09:03:02 10.7 C 9.33 g/m*3 10.7 C 0 km/h
Sensor: Nr:Datum:Temp:Abs-Feuchte:Windchill:Wind:
Aussen-T/F 1126 01-10-2010 09:15:01 11.1 C 9.57 g/m*3 11.1 C 0 km/h
1127 01-10-2010 09:27:01 11.3 C 9.69 g/m*3 11.3 C 0 km/h
1128 01-10-2010 09:39:02 11.4 C 9.75 g/m*3 11.4 C 0 km/h
1129 01-10-2010 09:51:02 11.7 C 9.94 g/m*3 11.7 C 0 km/h
1130 01-10-2010 10:03:02 11.7 C 9.94 g/m*3 11.7 C 0 km/h
1131 01-10-2010 10:15:02 11.7 C 9.83 g/m*3 11.7 C 0 km/h
1132 01-10-2010 10:27:02 11.6 C 9.56 g/m*3 11.6 C 0 km/h
1133 01-10-2010 10:39:02 11.7 C 9.52 g/m*3 11.7 C 0 km/h
1134 01-10-2010 10:51:02 11.9 C 9.32 g/m*3 11.9 C 0 km/h
1135 01-10-2010 11:03:02 12.1 C 9.12 g/m*3 12.1 C 0 km/h
1136 01-10-2010 11:15:02 12.2 C 8.85 g/m*3 12.2 C 0 km/h
1137 01-10-2010 11:27:02 12.5 C 8.91 g/m*3 12.5 C 0 km/h
1138 01-10-2010 11:39:02 12.5 C 8.69 g/m*3 12.5 C 0 km/h
1139 01-10-2010 11:51:02 13 C 8.62 g/m*3 13 C 0 km/h
1140 01-10-2010 12:03:02 12.8 C 8.51 g/m*3 12.8 C 0 km/h
1141 01-10-2010 12:15:02 12.8 C 8.62 g/m*3 12.8 C 0 km/h
1142 01-10-2010 12:27:02 12.7 C 8.46 g/m*3 12.7 C 0 km/h
1143 01-10-2010 12:39:02 12.4 C 8.41 g/m*3 12.4 C 0 km/h
1144 01-10-2010 12:51:02 12.7 C 8.46 g/m*3 12.7 C 0 km/h
1145 01-10-2010 13:03:01 12.8 C 8.4 g/m*3 12.8 C 0 km/h
1146 01-10-2010 13:15:02 13.3 C 8.32 g/m*3 13.3 C 0 km/h
1147 01-10-2010 13:27:02 13.4 C 8.14 g/m*3 13.4 C 0 km/h
1148 01-10-2010 13:39:01 13.1 C 7.76 g/m*3 13.1 C 0 km/h
1149 01-10-2010 13:51:02 13.3 C 7.97 g/m*3 13.3 C 0 km/h
1150 01-10-2010 14:03:01 13.1 C 7.87 g/m*3 13.1 C 0 km/h
Sensor: Nr:Datum:Temp:Abs-Feuchte:Windchill:Wind:
Aussen-T/F 1151 01-10-2010 14:15:01 13.2 C 8.04 g/m*3 13.2 C 0 km/h
1152 01-10-2010 14:27:01 13.3 C 7.86 g/m*3 13.3 C 0 km/h
1153 01-10-2010 14:39:02 13.2 C 7.92 g/m*3 13.2 C 0 km/h
1154 01-10-2010 14:51:02 13.8 C 7.98 g/m*3 13.8 C 0 km/h
1155 01-10-2010 15:03:02 14.4 C 7.91 g/m*3 14.4 C 0 km/h
1156 01-10-2010 15:15:02 15.2 C 7.92 g/m*3 15.2 C 0 km/h
1157 01-10-2010 15:27:02 15.3 C 7.7 g/m*3 15.3 C 0 km/h
1158 01-10-2010 15:39:02 15.7 C 7.76 g/m*3 15.7 C 0 km/h
1159 01-10-2010 15:51:02 15.9 C 7.58 g/m*3 15.9 C 0 km/h
1160 01-10-2010 16:03:02 16 C 7.49 g/m*3 16 C 0 km/h
1161 01-10-2010 16:15:02 16.2 C 7.17 g/m*3 16.2 C 0 km/h
1162 01-10-2010 16:27:02 17.1 C 7.42 g/m*3 17.1 C 0 km/h
1163 01-10-2010 16:39:02 17.2 C 7.91 g/m*3 17.2 C 0 km/h
1164 01-10-2010 16:51:02 17.2 C 8.05 g/m*3 17.2 C 0 km/h
1165 01-10-2010 17:03:02 17.5 C 7.9 g/m*3 17.5 C 0 km/h
1166 01-10-2010 17:15:02 16.6 C 8.19 g/m*3 16.6 C 0 km/h
1167 01-10-2010 17:27:02 16 C 8.31 g/m*3 16 C 0 km/h
1168 01-10-2010 17:39:02 15.4 C 8.54 g/m*3 15.4 C 0 km/h
1169 01-10-2010 17:51:02 15.2 C 8.7 g/m*3 15.2 C 0 km/h
1170 01-10-2010 18:03:02 14.8 C 8.74 g/m*3 14.8 C 0 km/h
1171 01-10-2010 18:15:02 14.7 C 8.94 g/m*3 14.7 C 0 km/h
1172 01-10-2010 18:27:02 14.5 C 8.83 g/m*3 14.5 C 0 km/h
1173 01-10-2010 18:39:01 14.1 C 8.74 g/m*3 14.1 C 0 km/h
1174 01-10-2010 18:51:02 13.6 C 8.71 g/m*3 13.6 C 0 km/h
1175 01-10-2010 19:03:01 12.8 C 8.62 g/m*3 12.8 C 0 km/h
Sensor: Nr:Datum:Temp:Abs-Feuchte:Windchill:Wind:
Aussen-T/F 1176 01-10-2010 19:15:02 12.5 C 8.58 g/m*3 12.5 C 0 km/h
1177 01-10-2010 19:27:02 12.2 C 8.52 g/m*3 12.2 C 0 km/h
1178 01-10-2010 19:39:02 11.8 C 8.53 g/m*3 11.8 C 0 km/h
1179 01-10-2010 19:51:02 11.6 C 8.52 g/m*3 11.6 C 0 km/h
1180 01-10-2010 20:03:02 11.4 C 8.42 g/m*3 11.4 C 0 km/h
1181 01-10-2010 20:15:02 11.3 C 8.47 g/m*3 11.3 C 0 km/h
1182 01-10-2010 20:27:02 11.2 C 8.51 g/m*3 11.2 C 0 km/h
1183 01-10-2010 20:39:02 11.2 C 8.51 g/m*3 11.2 C 0 km/h
1184 01-10-2010 20:51:01 11.2 C 8.62 g/m*3 11.2 C 0 km/h
1185 01-10-2010 21:03:02 11.1 C 8.56 g/m*3 11.1 C 0 km/h
1186 01-10-2010 21:15:01 11 C 8.51 g/m*3 11 C 0 km/h
1187 01-10-2010 21:27:01 10.8 C 8.5 g/m*3 10.8 C 0 km/h
1188 01-10-2010 21:39:01 10.7 C 8.55 g/m*3 10.7 C 0 km/h
1189 01-10-2010 21:51:01 10.7 C 8.55 g/m*3 10.7 C 0 km/h
1190 01-10-2010 22:03:02 10.8 C 8.7 g/m*3 10.8 C 0 km/h
1191 01-10-2010 22:15:02 10.9 C 8.75 g/m*3 10.9 C 0 km/h
1192 01-10-2010 22:27:02 11 C 8.81 g/m*3 11 C 0 km/h
1193 01-10-2010 22:39:01 11.1 C 8.76 g/m*3 11.1 C 0 km/h
1194 01-10-2010 22:52:04 11.1 C 8.76 g/m*3 11.1 C 0 km/h
1195 01-10-2010 23:04:04 11.1 C 8.76 g/m*3 11.1 C 0 km/h
1196 01-10-2010 23:16:04 11.1 C 8.76 g/m*3 11.1 C 0 km/h
1197 01-10-2010 23:28:04 11 C 8.71 g/m*3 11 C 0 km/h
1198 01-10-2010 23:40:04 11 C 8.71 g/m*3 11 C 0 km/h
1199 01-10-2010 23:52:04 11.1 C 8.76 g/m*3 11.1 C 0 km/h
1200 02-10-2010 00:04:04 11.2 C 8.82 g/m*3 11.2 C 0 km/h
Sensor: Nr:Datum:Temp:Abs-Feuchte:Windchill:Wind:
Aussen-T/F 1201 02-10-2010 00:16:04 11.2 C 8.72 g/m*3 11.2 C 0 km/h
1202 02-10-2010 00:28:04 11.2 C 8.72 g/m*3 11.2 C 0 km/h
1203 02-10-2010 00:40:04 11.1 C 8.66 g/m*3 11.1 C 0 km/h
1204 02-10-2010 00:52:04 10.9 C 8.65 g/m*3 10.9 C 0 km/h
1205 02-10-2010 01:04:04 10.9 C 8.65 g/m*3 10.9 C 0 km/h
1206 02-10-2010 01:16:04 11 C 8.71 g/m*3 11 C 0 km/h
1207 02-10-2010 01:28:05 10.9 C 8.75 g/m*3 10.9 C 0 km/h
1208 02-10-2010 01:40:05 11 C 8.81 g/m*3 11 C 0 km/h
1209 02-10-2010 01:52:05 10.8 C 8.8 g/m*3 10.8 C 0 km/h
1210 02-10-2010 02:04:05 10.8 C 8.8 g/m*3 10.8 C 0 km/h
1211 02-10-2010 02:16:05 10.8 C 8.9 g/m*3 10.8 C 0 km/h
1212 02-10-2010 02:28:05 11 C 9.01 g/m*3 11 C 0 km/h
1213 02-10-2010 02:40:05 11.1 C 9.07 g/m*3 11.1 C 0 km/h
1214 02-10-2010 02:52:05 11.1 C 9.07 g/m*3 11.1 C 0 km/h
1215 02-10-2010 03:04:05 11.1 C 9.07 g/m*3 11.1 C 0 km/h
1216 02-10-2010 03:16:05 11.1 C 9.17 g/m*3 11.1 C 0 km/h
1217 02-10-2010 03:28:05 11.1 C 9.17 g/m*3 11.1 C 0 km/h
1218 02-10-2010 03:40:05 11.1 C 9.17 g/m*3 11.1 C 0 km/h
1219 02-10-2010 03:52:05 11.1 C 9.17 g/m*3 11.1 C 0 km/h
1220 02-10-2010 04:04:05 11.1 C 9.27 g/m*3 11.1 C 0 km/h
1221 02-10-2010 04:16:05 11.1 C 9.27 g/m*3 11.1 C 0 km/h
1222 02-10-2010 04:28:05 11.1 C 9.27 g/m*3 11.1 C 0 km/h
1223 02-10-2010 04:40:05 11.1 C 9.27 g/m*3 11.1 C 0 km/h
1224 02-10-2010 04:52:05 11 C 9.21 g/m*3 11 C 0 km/h
1225 02-10-2010 05:04:05 11 C 9.21 g/m*3 11 C 0 km/h
Sensor: Nr:Datum:Temp:Abs-Feuchte:Windchill:Wind:
Aussen-T/F 1226 02-10-2010 05:16:05 11 C 9.31 g/m*3 11 C 0 km/h
1227 02-10-2010 05:28:05 11 C 9.31 g/m*3 11 C 0 km/h
1228 02-10-2010 05:40:05 10.9 C 9.35 g/m*3 10.9 C 0 km/h
1229 02-10-2010 05:52:05 11 C 9.31 g/m*3 11 C 0 km/h
1230 02-10-2010 06:04:06 11 C 9.31 g/m*3 11 C 0 km/h
1231 02-10-2010 06:16:06 11 C 9.41 g/m*3 11 C 0 km/h
1232 02-10-2010 06:28:06 11 C 9.41 g/m*3 11 C 0 km/h
1233 02-10-2010 06:40:06 11 C 9.41 g/m*3 11 C 0 km/h
1234 02-10-2010 06:52:06 11 C 9.41 g/m*3 11 C 0 km/h
1235 02-10-2010 07:04:06 11 C 9.41 g/m*3 11 C 0 km/h
1236 02-10-2010 07:16:06 11.1 C 9.47 g/m*3 11.1 C 0 km/h
1237 02-10-2010 07:28:06 11.2 C 9.63 g/m*3 11.2 C 0 km/h
1238 02-10-2010 07:40:03 11.2 C 9.63 g/m*3 11.2 C 0 km/h
1239 02-10-2010 07:52:02 11.2 C 9.63 g/m*3 11.2 C 0 km/h
1240 02-10-2010 08:04:02 11.3 C 9.69 g/m*3 11.3 C 0 km/h
1241 02-10-2010 08:16:03 11.3 C 9.69 g/m*3 11.3 C 0 km/h
1242 02-10-2010 08:28:03 11.4 C 9.75 g/m*3 11.4 C 0 km/h
1243 02-10-2010 08:40:02 11.5 C 9.81 g/m*3 11.5 C 0 km/h
1244 02-10-2010 08:52:02 11.8 C 10 g/m*3 11.8 C 0 km/h
1245 02-10-2010 09:04:02 11.8 C 10 g/m*3 11.8 C 0 km/h
1246 02-10-2010 09:16:02 11.8 C 10 g/m*3 11.8 C 0 km/h
1247 02-10-2010 09:28:02 12 C 10.12 g/m*3 12 C 0 km/h
1248 02-10-2010 09:40:02 12.1 C 10.19 g/m*3 12.1 C 0 km/h
1249 02-10-2010 09:52:02 12.3 C 10.32 g/m*3 12.3 C 0 km/h
1250 02-10-2010 10:04:02 12.6 C 10.51 g/m*3 12.6 C 0 km/h
Sensor: Nr:Datum:Temp:Abs-Feuchte:Windchill:Wind:
Aussen-T/F 1251 02-10-2010 10:16:02 13 C 10.66 g/m*3 13 C 0 km/h
1252 02-10-2010 10:28:02 13 C 10.66 g/m*3 13 C 0 km/h
1253 02-10-2010 10:40:01 13.3 C 10.86 g/m*3 13.3 C 0 km/h
1254 02-10-2010 10:52:02 13.8 C 11.08 g/m*3 13.8 C 0 km/h
1255 02-10-2010 11:04:01 14 C 11.1 g/m*3 14 C 0 km/h
1256 02-10-2010 11:16:01 14.4 C 11.37 g/m*3 14.4 C 0 km/h
1257 02-10-2010 11:28:01 14.4 C 11.37 g/m*3 14.4 C 0 km/h
1258 02-10-2010 11:40:02 14.4 C 11.25 g/m*3 14.4 C 0 km/h
1259 02-10-2010 11:52:02 14.4 C 11.25 g/m*3 14.4 C 0 km/h
1260 02-10-2010 12:04:02 14.5 C 11.32 g/m*3 14.5 C 0 km/h
1261 02-10-2010 12:16:02 14.7 C 11.46 g/m*3 14.7 C 0 km/h
1262 02-10-2010 12:28:02 15.2 C 11.68 g/m*3 15.2 C 0 km/h
1263 02-10-2010 12:40:02 15.4 C 11.69 g/m*3 15.4 C 0 km/h
1264 02-10-2010 12:52:02 15.4 C 11.43 g/m*3 15.4 C 0 km/h
1265 02-10-2010 13:04:02 15.5 C 11.5 g/m*3 15.5 C 0 km/h
1266 02-10-2010 13:16:02 15.6 C 11.57 g/m*3 15.6 C 0 km/h
1267 02-10-2010 13:28:02 15.7 C 11.64 g/m*3 15.7 C 0 km/h
1268 02-10-2010 13:40:02 15.9 C 11.65 g/m*3 15.9 C 0 km/h
1269 02-10-2010 13:52:01 16 C 11.31 g/m*3 16 C 0 km/h
1270 02-10-2010 14:04:01 15.7 C 11.24 g/m*3 15.7 C 0 km/h
1271 02-10-2010 14:16:02 15.4 C 11.17 g/m*3 15.4 C 0 km/h
1272 02-10-2010 14:28:02 15.4 C 11.3 g/m*3 15.4 C 0 km/h
1273 02-10-2010 14:40:01 15.7 C 11.64 g/m*3 15.7 C 0 km/h
1274 02-10-2010 14:52:03 16 C 11.72 g/m*3 16 C 0 km/h
1275 02-10-2010 15:04:02 15.8 C 11.71 g/m*3 15.8 C 0 km/h
Sensor: Nr:Datum:Temp:Abs-Feuchte:Windchill:Wind:
Aussen-T/F 1276 02-10-2010 15:16:02 15.9 C 11.65 g/m*3 15.9 C 0 km/h
1277 02-10-2010 15:28:02 16 C 11.44 g/m*3 16 C 0 km/h
1278 02-10-2010 15:40:02 16.2 C 11.31 g/m*3 16.2 C 0 km/h
1279 02-10-2010 15:52:02 16.1 C 11.24 g/m*3 16.1 C 0 km/h
1280 02-10-2010 16:04:02 16.2 C 11.31 g/m*3 16.2 C 0 km/h
1281 02-10-2010 16:16:02 16.1 C 10.97 g/m*3 16.1 C 0 km/h
1282 02-10-2010 16:28:02 16.2 C 11.03 g/m*3 16.2 C 0 km/h
1283 02-10-2010 16:40:02 16.4 C 11.17 g/m*3 16.4 C 0 km/h
1284 02-10-2010 16:52:02 16.3 C 10.96 g/m*3 16.3 C 0 km/h
1285 02-10-2010 17:04:01 16.4 C 11.03 g/m*3 16.4 C 0 km/h
1286 02-10-2010 17:16:01 16.3 C 10.82 g/m*3 16.3 C 0 km/h
1287 02-10-2010 17:28:01 16.3 C 10.96 g/m*3 16.3 C 0 km/h
1288 02-10-2010 17:40:02 16.3 C 10.96 g/m*3 16.3 C 0 km/h
1289 02-10-2010 17:52:02 16.1 C 10.83 g/m*3 16.1 C 0 km/h
1290 02-10-2010 18:04:02 15.9 C 10.97 g/m*3 15.9 C 0 km/h
1291 02-10-2010 18:16:02 15.6 C 10.91 g/m*3 15.6 C 0 km/h
1292 02-10-2010 18:28:02 15.3 C 10.84 g/m*3 15.3 C 0 km/h
1293 02-10-2010 18:40:02 15.2 C 10.9 g/m*3 15.2 C 0 km/h
1294 02-10-2010 18:52:02 15.1 C 10.97 g/m*3 15.1 C 0 km/h
1295 02-10-2010 19:04:02 15 C 10.9 g/m*3 15 C 0 km/h
1296 02-10-2010 19:16:02 15 C 10.9 g/m*3 15 C 0 km/h
1297 02-10-2010 19:28:02 15 C 10.9 g/m*3 15 C 0 km/h
1298 02-10-2010 19:40:02 14.9 C 10.96 g/m*3 14.9 C 0 km/h
1299 02-10-2010 19:52:01 14.8 C 11.02 g/m*3 14.8 C 0 km/h
1300 02-10-2010 20:04:01 14.8 C 11.02 g/m*3 14.8 C 0 km/h
Sensor: Nr:Datum:Temp:Abs-Feuchte:Windchill:Wind:
Aussen-T/F 1301 02-10-2010 20:16:02 14.9 C 11.22 g/m*3 14.9 C 0 km/h
1302 02-10-2010 20:28:02 14.9 C 11.22 g/m*3 14.9 C 0 km/h
1303 02-10-2010 20:40:01 14.8 C 11.02 g/m*3 14.8 C 0 km/h
1304 02-10-2010 20:52:01 14.6 C 11.01 g/m*3 14.6 C 0 km/h
1305 02-10-2010 21:04:01 14.6 C 11.01 g/m*3 14.6 C 0 km/h
1306 02-10-2010 21:16:02 14.5 C 10.94 g/m*3 14.5 C 0 km/h
1307 02-10-2010 21:28:02 14.5 C 11.07 g/m*3 14.5 C 0 km/h
1308 02-10-2010 21:40:01 14.5 C 11.07 g/m*3 14.5 C 0 km/h
1309 02-10-2010 21:53:02 14.4 C 11 g/m*3 14.4 C 0 km/h
1310 02-10-2010 22:05:02 14.4 C 11 g/m*3 14.4 C 0 km/h
1311 02-10-2010 22:17:02 14.4 C 11.13 g/m*3 14.4 C 0 km/h
1312 02-10-2010 22:29:02 14.4 C 11.13 g/m*3 14.4 C 0 km/h
1313 02-10-2010 22:41:02 14.5 C 11.19 g/m*3 14.5 C 0 km/h
1314 02-10-2010 22:53:02 14.7 C 11.33 g/m*3 14.7 C 0 km/h
1315 02-10-2010 23:05:02 14.7 C 11.33 g/m*3 14.7 C 0 km/h
1316 02-10-2010 23:17:02 14.6 C 11.14 g/m*3 14.6 C 0 km/h
1317 02-10-2010 23:29:03 14.5 C 11.07 g/m*3 14.5 C 0 km/h
1318 02-10-2010 23:41:03 14.5 C 11.07 g/m*3 14.5 C 0 km/h
1319 02-10-2010 23:53:03 14.5 C 11.07 g/m*3 14.5 C 0 km/h
1320 03-10-2010 00:05:03 14.6 C 11.14 g/m*3 14.6 C 0 km/h
1321 03-10-2010 00:17:03 14.4 C 11 g/m*3 14.4 C 0 km/h
1322 03-10-2010 00:29:03 14.3 C 10.93 g/m*3 14.3 C 0 km/h
1323 03-10-2010 00:41:03 14.4 C 11.13 g/m*3 14.4 C 0 km/h
1324 03-10-2010 00:53:03 14.5 C 11.19 g/m*3 14.5 C 0 km/h
1325 03-10-2010 01:05:03 14.5 C 11.07 g/m*3 14.5 C 0 km/h
Sensor: Nr:Datum:Temp:Abs-Feuchte:Windchill:Wind:
Aussen-T/F 1326 03-10-2010 01:17:03 14.6 C 10.89 g/m*3 14.6 C 0 km/h
1327 03-10-2010 01:29:03 14.7 C 10.58 g/m*3 14.7 C 0 km/h
1328 03-10-2010 01:41:03 14.8 C 10.51 g/m*3 14.8 C 0 km/h
1329 03-10-2010 01:53:03 14.9 C 10.45 g/m*3 14.9 C 0 km/h
1330 03-10-2010 02:05:03 15 C 10.26 g/m*3 15 C 0 km/h
1331 03-10-2010 02:17:03 14.8 C 10.39 g/m*3 14.8 C 0 km/h
1332 03-10-2010 02:29:03 14.6 C 10.39 g/m*3 14.6 C 0 km/h
1333 03-10-2010 02:41:03 14.4 C 10.26 g/m*3 14.4 C 0 km/h
1334 03-10-2010 02:53:03 14.1 C 10.32 g/m*3 14.1 C 0 km/h
1335 03-10-2010 03:05:03 14 C 10.37 g/m*3 14 C 0 km/h
1336 03-10-2010 03:17:03 13.8 C 10.48 g/m*3 13.8 C 0 km/h
1337 03-10-2010 03:29:04 13.8 C 10.6 g/m*3 13.8 C 0 km/h
1338 03-10-2010 03:41:04 13.9 C 10.67 g/m*3 13.9 C 0 km/h
1339 03-10-2010 03:53:04 14.1 C 10.8 g/m*3 14.1 C 0 km/h
1340 03-10-2010 04:05:04 14 C 10.74 g/m*3 14 C 0 km/h
1341 03-10-2010 04:17:04 14.1 C 10.68 g/m*3 14.1 C 0 km/h
1342 03-10-2010 04:29:04 14 C 10.61 g/m*3 14 C 0 km/h
1343 03-10-2010 04:41:04 14 C 10.49 g/m*3 14 C 0 km/h
1344 03-10-2010 04:53:04 14.3 C 10.57 g/m*3 14.3 C 0 km/h
1345 03-10-2010 05:05:04 14.3 C 10.44 g/m*3 14.3 C 0 km/h
1346 03-10-2010 05:17:04 14.4 C 10.38 g/m*3 14.4 C 0 km/h
1347 03-10-2010 05:29:04 14.4 C 10.38 g/m*3 14.4 C 0 km/h
1348 03-10-2010 05:41:04 14.2 C 10.26 g/m*3 14.2 C 0 km/h
1349 03-10-2010 05:53:04 14 C 10.25 g/m*3 14 C 0 km/h
1350 03-10-2010 06:05:04 13.8 C 10.37 g/m*3 13.8 C 0 km/h
Sensor: Nr:Datum:Temp:Abs-Feuchte:Windchill:Wind:
Aussen-T/F 1351 03-10-2010 06:17:04 13.5 C 10.18 g/m*3 13.5 C 0 km/h
1352 03-10-2010 06:29:04 13.4 C 10.23 g/m*3 13.4 C 0 km/h
1353 03-10-2010 06:41:04 13.3 C 10.17 g/m*3 13.3 C 0 km/h
1354 03-10-2010 06:53:04 13.3 C 10.28 g/m*3 13.3 C 0 km/h
1355 03-10-2010 07:05:04 13.3 C 10.28 g/m*3 13.3 C 0 km/h
1356 03-10-2010 07:17:04 13.4 C 10.46 g/m*3 13.4 C 0 km/h
1357 03-10-2010 07:29:04 13.4 C 10.46 g/m*3 13.4 C 0 km/h
1358 03-10-2010 07:41:05 13.5 C 10.53 g/m*3 13.5 C 0 km/h
1359 03-10-2010 07:53:02 13.5 C 10.41 g/m*3 13.5 C 0 km/h
1360 03-10-2010 08:05:01 13.7 C 10.42 g/m*3 13.7 C 0 km/h
1361 03-10-2010 08:17:02 13.9 C 10.43 g/m*3 13.9 C 0 km/h
1362 03-10-2010 08:29:02 13.9 C 10.43 g/m*3 13.9 C 0 km/h
1363 03-10-2010 08:41:01 14.1 C 10.44 g/m*3 14.1 C 0 km/h
1364 03-10-2010 08:53:03 14.3 C 10.32 g/m*3 14.3 C 0 km/h
1365 03-10-2010 09:05:02 14.8 C 10.26 g/m*3 14.8 C 0 km/h
1366 03-10-2010 09:17:02 15 C 10 g/m*3 15 C 0 km/h
1367 03-10-2010 09:29:03 15.1 C 9.93 g/m*3 15.1 C 0 km/h
1368 03-10-2010 09:41:02 15.2 C 10.12 g/m*3 15.2 C 0 km/h
1369 03-10-2010 09:53:02 15.5 C 10.05 g/m*3 15.5 C 0 km/h
1370 03-10-2010 10:05:02 16.2 C 10.2 g/m*3 16.2 C 0 km/h
1371 03-10-2010 10:17:02 16.9 C 9.92 g/m*3 16.9 C 0 km/h
1372 03-10-2010 10:29:03 17 C 9.69 g/m*3 17 C 0 km/h
1373 03-10-2010 10:41:01 17 C 9.84 g/m*3 17 C 0 km/h
1374 03-10-2010 10:53:02 16.8 C 9.87 g/m*3 16.8 C 0 km/h
1375 03-10-2010 11:05:01 17.2 C 9.81 g/m*3 17.2 C 0 km/h
Sensor: Nr:Datum:Temp:Abs-Feuchte:Windchill:Wind:
Aussen-T/F 1376 03-10-2010 11:17:02 17.6 C 10.35 g/m*3 17.6 C 0 km/h
1377 03-10-2010 11:29:02 17.9 C 10.23 g/m*3 17.9 C 0 km/h
1378 03-10-2010 11:41:02 18.5 C 9.97 g/m*3 18.5 C 0 km/h
1379 03-10-2010 11:53:02 19.5 C 10.24 g/m*3 19.5 C 0 km/h
1380 03-10-2010 12:05:03 19.7 C 9.85 g/m*3 19.7 C 0 km/h
1381 03-10-2010 12:17:02 19.7 C 10.02 g/m*3 19.7 C 0 km/h
1382 03-10-2010 12:29:02 19.3 C 9.45 g/m*3 19.3 C 0 km/h
1383 03-10-2010 12:41:02 19.7 C 9.68 g/m*3 19.7 C 0 km/h
1384 03-10-2010 12:53:01 20 C 9.68 g/m*3 20 C 0 km/h
1385 03-10-2010 13:05:02 20.7 C 9.9 g/m*3 20.7 C 0 km/h
1386 03-10-2010 13:17:01 21.1 C 9.58 g/m*3 21.1 C 0 km/h
1387 03-10-2010 13:29:01 21.5 C 9.62 g/m*3 21.5 C 0 km/h
1388 03-10-2010 13:41:01 21.7 C 8.97 g/m*3 21.7 C 0 km/h
1389 03-10-2010 13:53:01 21.8 C 9.02 g/m*3 21.8 C 0 km/h
1390 03-10-2010 14:05:02 22.2 C 8.83 g/m*3 22.2 C 0 km/h
1391 03-10-2010 14:17:01 22.7 C 9.5 g/m*3 22.7 C 0 km/h
1392 03-10-2010 14:29:01 23.2 C 9.15 g/m*3 23.2 C 0 km/h
1393 03-10-2010 14:41:01 24.4 C 9.12 g/m*3 24.4 C 0 km/h
1394 03-10-2010 14:53:01 24.2 C 8.8 g/m*3 24.2 C 0 km/h
1395 03-10-2010 15:05:02 24.4 C 8.68 g/m*3 24.4 C 0 km/h
1396 03-10-2010 15:17:02 24.4 C 8.68 g/m*3 24.4 C 0 km/h
1397 03-10-2010 15:29:02 24.5 C 8.5 g/m*3 24.5 C 0 km/h
1398 03-10-2010 15:41:01 24.9 C 8.7 g/m*3 24.9 C 0 km/h
1399 03-10-2010 15:53:02 25.4 C 8.48 g/m*3 25.4 C 0 km/h
1400 03-10-2010 16:05:01 24.6 C 8.33 g/m*3 24.6 C 0 km/h
Sensor: Nr:Datum:Temp:Abs-Feuchte:Windchill:Wind:
Aussen-T/F 1401 03-10-2010 16:17:02 24.7 C 8.37 g/m*3 24.7 C 0 km/h
1402 03-10-2010 16:29:02 25.1 C 8.57 g/m*3 25.1 C 0 km/h
1403 03-10-2010 16:41:01 25.4 C 8.95 g/m*3 25.4 C 0 km/h
1404 03-10-2010 16:53:03 25.8 C 9.15 g/m*3 25.8 C 0 km/h
1405 03-10-2010 17:05:02 26.1 C 9.3 g/m*3 26.1 C 0 km/h
1406 03-10-2010 17:17:02 25.6 C 9.05 g/m*3 25.6 C 0 km/h
1407 03-10-2010 17:29:02 25.6 C 9.52 g/m*3 25.6 C 0 km/h
1408 03-10-2010 17:41:03 24.4 C 9.35 g/m*3 24.4 C 0 km/h
1409 03-10-2010 17:53:02 24.4 C 9.57 g/m*3 24.4 C 0 km/h
1410 03-10-2010 18:05:01 23.6 C 10.21 g/m*3 23.6 C 0 km/h
1411 03-10-2010 18:17:02 22.5 C 10.39 g/m*3 22.5 C 0 km/h
1412 03-10-2010 18:29:02 21.4 C 10.5 g/m*3 21.4 C 0 km/h
1413 03-10-2010 18:41:02 20.4 C 10.61 g/m*3 20.4 C 0 km/h
1414 03-10-2010 18:53:02 19.8 C 10.76 g/m*3 19.8 C 0 km/h
1415 03-10-2010 19:05:03 19.3 C 10.95 g/m*3 19.3 C 0 km/h
1416 03-10-2010 19:17:02 19 C 10.76 g/m*3 19 C 0 km/h
1417 03-10-2010 19:29:02 18.9 C 10.85 g/m*3 18.9 C 0 km/h
1418 03-10-2010 19:41:02 18.4 C 10.85 g/m*3 18.4 C 0 km/h
1419 03-10-2010 19:53:01 18.3 C 10.79 g/m*3 18.3 C 0 km/h
1420 03-10-2010 20:05:02 18.1 C 10.82 g/m*3 18.1 C 0 km/h
1421 03-10-2010 20:17:01 18.5 C 10.92 g/m*3 18.5 C 0 km/h
1422 03-10-2010 20:29:01 18.4 C 10.85 g/m*3 18.4 C 0 km/h
1423 03-10-2010 20:41:02 18.4 C 10.85 g/m*3 18.4 C 0 km/h
1424 03-10-2010 20:53:01 18.3 C 10.94 g/m*3 18.3 C 0 km/h
1425 03-10-2010 21:05:02 18.3 C 10.94 g/m*3 18.3 C 0 km/h
Sensor: Nr:Datum:Temp:Abs-Feuchte:Windchill:Wind:
Aussen-T/F 1426 03-10-2010 21:17:02 18.1 C 10.97 g/m*3 18.1 C 0 km/h
1427 03-10-2010 21:29:02 17.9 C 11.15 g/m*3 17.9 C 0 km/h
1428 03-10-2010 21:41:02 17.8 C 11.08 g/m*3 17.8 C 0 km/h
1429 03-10-2010 21:53:01 17.7 C 11.01 g/m*3 17.7 C 0 km/h
1430 03-10-2010 22:05:01 17.6 C 11.1 g/m*3 17.6 C 0 km/h
1431 03-10-2010 22:17:02 17.5 C 11.03 g/m*3 17.5 C 0 km/h
1432 03-10-2010 22:29:02 17.5 C 10.88 g/m*3 17.5 C 0 km/h
1433 03-10-2010 22:41:01 17.6 C 10.8 g/m*3 17.6 C 0 km/h
1434 03-10-2010 22:53:02 17.6 C 10.5 g/m*3 17.6 C 0 km/h
1435 03-10-2010 23:05:01 17.5 C 10.44 g/m*3 17.5 C 0 km/h
1436 03-10-2010 23:18:06 17.6 C 10.5 g/m*3 17.6 C 0 km/h
1437 03-10-2010 23:30:07 17.6 C 10.35 g/m*3 17.6 C 0 km/h
1438 03-10-2010 23:42:07 17.6 C 10.2 g/m*3 17.6 C 0 km/h
1439 03-10-2010 23:54:07 17.5 C 10.14 g/m*3 17.5 C 0 km/h
1440 04-10-2010 00:06:07 17.4 C 9.93 g/m*3 17.4 C 0 km/h
1441 04-10-2010 00:18:07 17.4 C 9.93 g/m*3 17.4 C 0 km/h
1442 04-10-2010 00:30:07 17.2 C 9.81 g/m*3 17.2 C 0 km/h
1443 04-10-2010 00:42:07 17.2 C 9.81 g/m*3 17.2 C 0 km/h
1444 04-10-2010 00:54:07 17.2 C 9.81 g/m*3 17.2 C 0 km/h
1445 04-10-2010 01:06:07 17.2 C 9.81 g/m*3 17.2 C 0 km/h
1446 04-10-2010 01:18:07 17.2 C 9.67 g/m*3 17.2 C 0 km/h
1447 04-10-2010 01:30:07 17.2 C 9.52 g/m*3 17.2 C 0 km/h
1448 04-10-2010 01:42:07 17.2 C 9.52 g/m*3 17.2 C 0 km/h
1449 04-10-2010 01:54:07 17.1 C 9.46 g/m*3 17.1 C 0 km/h
1450 04-10-2010 02:06:07 17 C 9.55 g/m*3 17 C 0 km/h
Sensor: Nr:Datum:Temp:Abs-Feuchte:Windchill:Wind:
Aussen-T/F 1451 04-10-2010 02:18:07 16.9 C 9.64 g/m*3 16.9 C 0 km/h
1452 04-10-2010 02:30:07 16.8 C 9.72 g/m*3 16.8 C 0 km/h
1453 04-10-2010 02:42:07 16.8 C 9.58 g/m*3 16.8 C 0 km/h
1454 04-10-2010 02:54:07 16.6 C 9.75 g/m*3 16.6 C 0 km/h
1455 04-10-2010 03:06:07 16.4 C 9.77 g/m*3 16.4 C 0 km/h
1456 04-10-2010 03:18:07 15.9 C 10.02 g/m*3 15.9 C 0 km/h
1457 04-10-2010 03:30:08 15.6 C 9.97 g/m*3 15.6 C 0 km/h
1458 04-10-2010 03:42:08 15.5 C 10.05 g/m*3 15.5 C 0 km/h
1459 04-10-2010 03:54:08 15.4 C 9.99 g/m*3 15.4 C 0 km/h
1460 04-10-2010 04:06:08 15.3 C 9.92 g/m*3 15.3 C 0 km/h
1461 04-10-2010 04:18:08 15.2 C 9.99 g/m*3 15.2 C 0 km/h
1462 04-10-2010 04:30:08 15.2 C 9.99 g/m*3 15.2 C 0 km/h
1463 04-10-2010 04:42:08 15 C 10 g/m*3 15 C 0 km/h
1464 04-10-2010 04:54:08 14.8 C 10.01 g/m*3 14.8 C 0 km/h
1465 04-10-2010 05:06:08 14.6 C 10.01 g/m*3 14.6 C 0 km/h
1466 04-10-2010 05:18:08 14.4 C 9.89 g/m*3 14.4 C 0 km/h
1467 04-10-2010 05:30:08 14.3 C 9.95 g/m*3 14.3 C 0 km/h
1468 04-10-2010 05:42:08 14.1 C 9.95 g/m*3 14.1 C 0 km/h
1469 04-10-2010 05:54:08 14.1 C 9.95 g/m*3 14.1 C 0 km/h
1470 04-10-2010 06:06:08 14.2 C 10.01 g/m*3 14.2 C 0 km/h
1471 04-10-2010 06:18:08 13.9 C 10.07 g/m*3 13.9 C 0 km/h
1472 04-10-2010 06:30:08 14 C 9.89 g/m*3 14 C 0 km/h
1473 04-10-2010 06:42:08 13.8 C 9.89 g/m*3 13.8 C 0 km/h
1474 04-10-2010 06:54:08 13.7 C 9.83 g/m*3 13.7 C 0 km/h
1475 04-10-2010 07:06:03 13.8 C 10.01 g/m*3 13.8 C 0 km/h
Sensor: Nr:Datum:Temp:Abs-Feuchte:Windchill:Wind:
Aussen-T/F 1476 04-10-2010 07:18:02 13.7 C 9.83 g/m*3 13.7 C 0 km/h
1477 04-10-2010 07:30:02 13.5 C 9.71 g/m*3 13.5 C 0 km/h
1478 04-10-2010 07:42:03 13.5 C 9.71 g/m*3 13.5 C 0 km/h
1479 04-10-2010 07:54:02 13.6 C 9.89 g/m*3 13.6 C 0 km/h
1480 04-10-2010 08:06:02 13.8 C 9.89 g/m*3 13.8 C 0 km/h
1481 04-10-2010 08:18:02 14.1 C 9.95 g/m*3 14.1 C 0 km/h
1482 04-10-2010 08:30:02 14.3 C 9.83 g/m*3 14.3 C 0 km/h
1483 04-10-2010 08:42:03 14.4 C 9.64 g/m*3 14.4 C 0 km/h
1484 04-10-2010 08:54:02 14.7 C 9.69 g/m*3 14.7 C 0 km/h
1485 04-10-2010 09:06:02 14.9 C 9.56 g/m*3 14.9 C 0 km/h
1486 04-10-2010 09:18:02 15 C 9.23 g/m*3 15 C 0 km/h
1487 04-10-2010 09:30:02 15 C 9.1 g/m*3 15 C 0 km/h
1488 04-10-2010 09:42:02 15 C 9.1 g/m*3 15 C 0 km/h
1489 04-10-2010 09:54:02 15.1 C 9.16 g/m*3 15.1 C 0 km/h
1490 04-10-2010 10:06:02 15.2 C 9.09 g/m*3 15.2 C 0 km/h
1491 04-10-2010 10:18:02 15.3 C 9.01 g/m*3 15.3 C 0 km/h
1492 04-10-2010 10:30:02 15.4 C 9.07 g/m*3 15.4 C 0 km/h
1493 04-10-2010 10:42:02 16 C 8.86 g/m*3 16 C 0 km/h
1494 04-10-2010 10:54:01 16.4 C 8.79 g/m*3 16.4 C 0 km/h
1495 04-10-2010 11:06:02 17.1 C 8.88 g/m*3 17.1 C 0 km/h
1496 04-10-2010 11:18:01 17.1 C 8.88 g/m*3 17.1 C 0 km/h
1497 04-10-2010 11:30:01 17.6 C 9 g/m*3 17.6 C 0 km/h
1498 04-10-2010 11:42:01 18 C 8.91 g/m*3 18 C 0 km/h
1499 04-10-2010 11:54:01 18.3 C 8.91 g/m*3 18.3 C 0 km/h
1500 04-10-2010 12:06:01 18.5 C 8.86 g/m*3 18.5 C 0 km/h
Sensor: Nr:Datum:Temp:Abs-Feuchte:Windchill:Wind:
Aussen-T/F 1501 04-10-2010 12:18:02 18 C 8.91 g/m*3 18 C 0 km/h
1502 04-10-2010 12:30:02 17.8 C 8.8 g/m*3 17.8 C 0 km/h
1503 04-10-2010 12:42:01 17.5 C 8.65 g/m*3 17.5 C 0 km/h
1504 04-10-2010 12:54:02 17.4 C 8.6 g/m*3 17.4 C 0 km/h
1505 04-10-2010 13:06:01 17.9 C 8.7 g/m*3 17.9 C 0 km/h
1506 04-10-2010 13:18:02 18.3 C 8.6 g/m*3 18.3 C 0 km/h
1507 04-10-2010 13:30:02 18.9 C 8.59 g/m*3 18.9 C 0 km/h
1508 04-10-2010 13:42:01 19.1 C 8.52 g/m*3 19.1 C 0 km/h
1509 04-10-2010 13:54:02 19.4 C 8.68 g/m*3 19.4 C 0 km/h
1510 04-10-2010 14:06:02 19.3 C 8.63 g/m*3 19.3 C 0 km/h
1511 04-10-2010 14:18:02 19.5 C 8.73 g/m*3 19.5 C 0 km/h
1512 04-10-2010 14:30:02 19.7 C 8.66 g/m*3 19.7 C 0 km/h
1513 04-10-2010 14:42:02 19.9 C 8.59 g/m*3 19.9 C 0 km/h
1514 04-10-2010 14:54:02 20.4 C 9.02 g/m*3 20.4 C 0 km/h
1515 04-10-2010 15:06:01 21.2 C 8.9 g/m*3 21.2 C 0 km/h
1516 04-10-2010 15:18:02 22.3 C 8.29 g/m*3 22.3 C 0 km/h
1517 04-10-2010 15:30:02 22.7 C 8.69 g/m*3 22.7 C 0 km/h
1518 04-10-2010 15:42:02 23 C 8.63 g/m*3 23 C 0 km/h
1519 04-10-2010 15:54:02 23.3 C 8.57 g/m*3 23.3 C 0 km/h
1520 04-10-2010 16:06:02 23.1 C 8.27 g/m*3 23.1 C 0 km/h
1521 04-10-2010 16:18:02 23.4 C 8.2 g/m*3 23.4 C 0 km/h
1522 04-10-2010 16:30:02 23.9 C 8.44 g/m*3 23.9 C 0 km/h
1523 04-10-2010 16:42:02 23.9 C 8 g/m*3 23.9 C 0 km/h
1524 04-10-2010 16:54:01 23.9 C 8.22 g/m*3 23.9 C 0 km/h
1525 04-10-2010 17:06:02 23.3 C 8.15 g/m*3 23.3 C 0 km/h
Sensor: Nr:Datum:Temp:Abs-Feuchte:Windchill:Wind:
Aussen-T/F 1526 04-10-2010 17:18:01 22 C 8.54 g/m*3 22 C 0 km/h
1527 04-10-2010 17:30:01 20.4 C 9.38 g/m*3 20.4 C 0 km/h
1528 04-10-2010 17:42:01 19.5 C 9.73 g/m*3 19.5 C 0 km/h
1529 04-10-2010 17:54:01 20.5 C 9.61 g/m*3 20.5 C 0 km/h
1530 04-10-2010 18:06:02 20.2 C 9.44 g/m*3 20.2 C 0 km/h
1531 04-10-2010 18:18:02 19.5 C 9.57 g/m*3 19.5 C 0 km/h
1532 04-10-2010 18:30:02 18.7 C 9.61 g/m*3 18.7 C 0 km/h
1533 04-10-2010 18:42:01 17.8 C 9.71 g/m*3 17.8 C 0 km/h
1534 04-10-2010 18:54:01 17.2 C 9.81 g/m*3 17.2 C 0 km/h
1535 04-10-2010 19:06:01 16.9 C 10.07 g/m*3 16.9 C 0 km/h
1536 04-10-2010 19:18:02 16.8 C 10.15 g/m*3 16.8 C 0 km/h
1537 04-10-2010 19:30:02 16.5 C 10.11 g/m*3 16.5 C 0 km/h
1538 04-10-2010 19:42:01 16.2 C 10.07 g/m*3 16.2 C 0 km/h
1539 04-10-2010 19:54:03 16.2 C 10.07 g/m*3 16.2 C 0 km/h
1540 04-10-2010 20:06:02 16.4 C 10.19 g/m*3 16.4 C 0 km/h
1541 04-10-2010 20:18:02 16.5 C 10.11 g/m*3 16.5 C 0 km/h
1542 04-10-2010 20:30:03 16.4 C 10.05 g/m*3 16.4 C 0 km/h
1543 04-10-2010 20:42:02 16.1 C 9.87 g/m*3 16.1 C 0 km/h
1544 04-10-2010 20:54:02 15.7 C 9.9 g/m*3 15.7 C 0 km/h
1545 04-10-2010 21:06:01 15.6 C 9.97 g/m*3 15.6 C 0 km/h
1546 04-10-2010 21:18:02 15.5 C 10.05 g/m*3 15.5 C 0 km/h
1547 04-10-2010 21:30:02 15.6 C 9.97 g/m*3 15.6 C 0 km/h
1548 04-10-2010 21:42:02 15.4 C 9.85 g/m*3 15.4 C 0 km/h
1549 04-10-2010 21:54:01 15 C 9.87 g/m*3 15 C 0 km/h
1550 04-10-2010 22:06:02 14.8 C 9.88 g/m*3 14.8 C 0 km/h
Sensor: Nr:Datum:Temp:Abs-Feuchte:Windchill:Wind:
Aussen-T/F 1551 04-10-2010 22:19:04 14.7 C 9.95 g/m*3 14.7 C 0 km/h
1552 04-10-2010 22:31:04 14.5 C 9.95 g/m*3 14.5 C 0 km/h
1553 04-10-2010 22:43:04 14.5 C 9.95 g/m*3 14.5 C 0 km/h
1554 04-10-2010 22:55:04 14.3 C 9.83 g/m*3 14.3 C 0 km/h
1555 04-10-2010 23:07:04 14.2 C 9.89 g/m*3 14.2 C 0 km/h
1556 04-10-2010 23:19:04 14.2 C 9.89 g/m*3 14.2 C 0 km/h
1557 04-10-2010 23:31:04 14.3 C 9.95 g/m*3 14.3 C 0 km/h
1558 04-10-2010 23:43:05 14.2 C 9.89 g/m*3 14.2 C 0 km/h
1559 04-10-2010 23:55:05 14.1 C 9.95 g/m*3 14.1 C 0 km/h
1560 05-10-2010 00:07:05 14.1 C 9.95 g/m*3 14.1 C 0 km/h
1561 05-10-2010 00:19:05 14.1 C 9.95 g/m*3 14.1 C 0 km/h
1562 05-10-2010 00:31:05 14.2 C 10.01 g/m*3 14.2 C 0 km/h
1563 05-10-2010 00:43:05 14.3 C 10.07 g/m*3 14.3 C 0 km/h
1564 05-10-2010 00:55:05 14.3 C 10.07 g/m*3 14.3 C 0 km/h
1565 05-10-2010 01:07:05 14.2 C 10.01 g/m*3 14.2 C 0 km/h
1566 05-10-2010 01:19:05 14.1 C 9.95 g/m*3 14.1 C 0 km/h
1567 05-10-2010 01:31:05 13.8 C 9.77 g/m*3 13.8 C 0 km/h
1568 05-10-2010 01:43:05 13.8 C 9.89 g/m*3 13.8 C 0 km/h
1569 05-10-2010 01:55:05 13.8 C 9.89 g/m*3 13.8 C 0 km/h
1570 05-10-2010 02:07:05 13.4 C 9.65 g/m*3 13.4 C 0 km/h
1571 05-10-2010 02:19:05 13.5 C 9.71 g/m*3 13.5 C 0 km/h
1572 05-10-2010 02:31:05 13.5 C 9.83 g/m*3 13.5 C 0 km/h
1573 05-10-2010 02:43:05 13.6 C 10 g/m*3 13.6 C 0 km/h
1574 05-10-2010 02:55:05 13.6 C 10 g/m*3 13.6 C 0 km/h
1575 05-10-2010 03:07:05 13.6 C 10 g/m*3 13.6 C 0 km/h
Sensor: Nr:Datum:Temp:Abs-Feuchte:Windchill:Wind:
Aussen-T/F 1576 05-10-2010 03:19:05 13.6 C 10 g/m*3 13.6 C 0 km/h
1577 05-10-2010 03:31:05 13.7 C 10.07 g/m*3 13.7 C 0 km/h
1578 05-10-2010 03:43:05 13.6 C 10 g/m*3 13.6 C 0 km/h
1579 05-10-2010 03:55:06 13.5 C 9.94 g/m*3 13.5 C 0 km/h
1580 05-10-2010 04:07:06 13.5 C 9.94 g/m*3 13.5 C 0 km/h
1581 05-10-2010 04:19:06 13.6 C 10.12 g/m*3 13.6 C 0 km/h
1582 05-10-2010 04:31:06 13.6 C 10.12 g/m*3 13.6 C 0 km/h
1583 05-10-2010 04:43:06 13.6 C 10.12 g/m*3 13.6 C 0 km/h
1584 05-10-2010 04:55:06 13.7 C 10.18 g/m*3 13.7 C 0 km/h
1585 05-10-2010 05:07:06 13.7 C 10.18 g/m*3 13.7 C 0 km/h
1586 05-10-2010 05:19:06 13.7 C 10.18 g/m*3 13.7 C 0 km/h
1587 05-10-2010 05:31:06 13.6 C 10.12 g/m*3 13.6 C 0 km/h
1588 05-10-2010 05:43:06 13.5 C 10.06 g/m*3 13.5 C 0 km/h
1589 05-10-2010 05:55:06 13.5 C 10.18 g/m*3 13.5 C 0 km/h
1590 05-10-2010 06:07:06 13.4 C 10.23 g/m*3 13.4 C 0 km/h
1591 05-10-2010 06:19:06 13.4 C 10.35 g/m*3 13.4 C 0 km/h
1592 05-10-2010 06:31:06 13.4 C 10.35 g/m*3 13.4 C 0 km/h
1593 05-10-2010 06:43:06 13.4 C 10.46 g/m*3 13.4 C 0 km/h
1594 05-10-2010 06:55:06 13.5 C 10.53 g/m*3 13.5 C 0 km/h
1595 05-10-2010 07:07:01 13.4 C 10.46 g/m*3 13.4 C 0 km/h
1596 05-10-2010 07:19:02 13.4 C 10.58 g/m*3 13.4 C 0 km/h
1597 05-10-2010 07:31:02 13.4 C 10.58 g/m*3 13.4 C 0 km/h
1598 05-10-2010 07:43:02 13.4 C 10.58 g/m*3 13.4 C 0 km/h
1599 05-10-2010 07:55:02 13.4 C 10.58 g/m*3 13.4 C 0 km/h
1600 05-10-2010 08:07:02 13.4 C 10.58 g/m*3 13.4 C 0 km/h
Sensor: Nr:Datum:Temp:Abs-Feuchte:Windchill:Wind:
Aussen-T/F 1601 05-10-2010 08:19:02 13.2 C 10.45 g/m*3 13.2 C 0 km/h
1602 05-10-2010 08:31:02 13.1 C 10.38 g/m*3 13.1 C 0 km/h
1603 05-10-2010 08:43:02 13 C 10.32 g/m*3 13 C 0 km/h
1604 05-10-2010 08:55:02 13 C 10.32 g/m*3 13 C 0 km/h
1605 05-10-2010 09:07:02 13 C 10.43 g/m*3 13 C 0 km/h
1606 05-10-2010 09:19:02 13.2 C 10.56 g/m*3 13.2 C 0 km/h
1607 05-10-2010 09:31:01 13.4 C 10.69 g/m*3 13.4 C 0 km/h
1608 05-10-2010 09:43:01 13.4 C 10.81 g/m*3 13.4 C 0 km/h
1609 05-10-2010 09:55:02 13.5 C 10.88 g/m*3 13.5 C 0 km/h
1610 05-10-2010 10:07:01 13.8 C 11.08 g/m*3 13.8 C 0 km/h
1611 05-10-2010 10:19:02 14.3 C 11.43 g/m*3 14.3 C 0 km/h
1612 05-10-2010 10:31:02 14.7 C 11.83 g/m*3 14.7 C 0 km/h
1613 05-10-2010 10:43:02 15.2 C 12.07 g/m*3 15.2 C 0 km/h
1614 05-10-2010 10:55:02 16 C 12.67 g/m*3 16 C 0 km/h
1615 05-10-2010 11:07:02 17.2 C 13.62 g/m*3 17.2 C 0 km/h
1616 05-10-2010 11:19:02 17.3 C 13.7 g/m*3 17.3 C 0 km/h
1617 05-10-2010 11:31:02 17.4 C 13.34 g/m*3 17.4 C 0 km/h
1618 05-10-2010 11:43:02 17.3 C 12.37 g/m*3 17.3 C 0 km/h
1619 05-10-2010 11:55:01 18.2 C 11.97 g/m*3 18.2 C 0 km/h
1620 05-10-2010 12:07:02 18.3 C 11.73 g/m*3 18.3 C 0 km/h
1621 05-10-2010 12:19:02 17.9 C 11.45 g/m*3 17.9 C 0 km/h
1622 05-10-2010 12:31:01 18 C 11.37 g/m*3 18 C 0 km/h
1623 05-10-2010 12:43:01 17.9 C 11.3 g/m*3 17.9 C 0 km/h
1624 05-10-2010 12:55:02 18.4 C 11.32 g/m*3 18.4 C 0 km/h
1625 05-10-2010 13:07:01 18.7 C 11.37 g/m*3 18.7 C 0 km/h
Sensor: Nr:Datum:Temp:Abs-Feuchte:Windchill:Wind:
Aussen-T/F 1626 05-10-2010 13:19:02 18.9 C 11.18 g/m*3 18.9 C 0 km/h
1627 05-10-2010 13:31:01 19 C 11.08 g/m*3 19 C 0 km/h
1628 05-10-2010 13:43:01 19.3 C 11.44 g/m*3 19.3 C 0 km/h
1629 05-10-2010 13:55:02 20 C 11.06 g/m*3 20 C 0 km/h
1630 05-10-2010 14:07:02 19.9 C 10.31 g/m*3 19.9 C 0 km/h
1631 05-10-2010 14:19:02 19.5 C 10.57 g/m*3 19.5 C 0 km/h
1632 05-10-2010 14:31:02 19.6 C 10.8 g/m*3 19.6 C 0 km/h
1633 05-10-2010 14:43:02 18.7 C 11.05 g/m*3 18.7 C 0 km/h
1634 05-10-2010 14:55:02 18.6 C 11.94 g/m*3 18.6 C 0 km/h
1635 05-10-2010 15:07:01 19 C 12.22 g/m*3 19 C 0 km/h
1636 05-10-2010 15:19:02 17.9 C 12.06 g/m*3 17.9 C 0 km/h
1637 05-10-2010 15:31:02 18.3 C 12.51 g/m*3 18.3 C 0 km/h
1638 05-10-2010 15:43:02 19.3 C 13.27 g/m*3 19.3 C 0 km/h
1639 05-10-2010 15:55:01 19.5 C 13.09 g/m*3 19.5 C 0 km/h
1640 05-10-2010 16:07:02 19 C 12.55 g/m*3 19 C 0 km/h
1641 05-10-2010 16:19:01 18.7 C 12.65 g/m*3 18.7 C 0 km/h
1642 05-10-2010 16:31:02 18.4 C 12.43 g/m*3 18.4 C 0 km/h
1643 05-10-2010 16:43:02 18.3 C 12.51 g/m*3 18.3 C 0 km/h
1644 05-10-2010 16:55:02 18.1 C 12.21 g/m*3 18.1 C 0 km/h
1645 05-10-2010 17:07:02 17.7 C 11.92 g/m*3 17.7 C 0 km/h
1646 05-10-2010 17:19:01 17.2 C 11.42 g/m*3 17.2 C 0 km/h
1647 05-10-2010 17:31:02 16.8 C 11.58 g/m*3 16.8 C 0 km/h
1648 05-10-2010 17:43:02 16.8 C 11.72 g/m*3 16.8 C 0 km/h
1649 05-10-2010 17:55:02 17 C 11.72 g/m*3 17 C 0 km/h
1650 05-10-2010 18:07:02 17.1 C 11.65 g/m*3 17.1 C 0 km/h
Sensor: Nr:Datum:Temp:Abs-Feuchte:Windchill:Wind:
Aussen-T/F 1651 05-10-2010 18:19:02 17.1 C 11.65 g/m*3 17.1 C 0 km/h
1652 05-10-2010 18:31:02 17.1 C 11.35 g/m*3 17.1 C 0 km/h
1653 05-10-2010 18:43:02 17 C 11.29 g/m*3 17 C 0 km/h
1654 05-10-2010 18:55:02 16.8 C 11.29 g/m*3 16.8 C 0 km/h
1655 05-10-2010 19:07:02 16.6 C 11.3 g/m*3 16.6 C 0 km/h
1656 05-10-2010 19:19:03 16.5 C 11.23 g/m*3 16.5 C 0 km/h
1657 05-10-2010 19:31:02 16.5 C 11.37 g/m*3 16.5 C 0 km/h
1658 05-10-2010 19:43:02 17.3 C 11.64 g/m*3 17.3 C 0 km/h
1659 05-10-2010 19:55:02 16.4 C 11.03 g/m*3 16.4 C 0 km/h
1660 05-10-2010 20:07:02 16.4 C 11.03 g/m*3 16.4 C 0 km/h
1661 05-10-2010 20:19:02 16.4 C 11.03 g/m*3 16.4 C 0 km/h
1662 05-10-2010 20:31:02 16.4 C 11.03 g/m*3 16.4 C 0 km/h
1663 05-10-2010 20:43:02 16.3 C 10.96 g/m*3 16.3 C 0 km/h
1664 05-10-2010 20:55:02 16.3 C 10.68 g/m*3 16.3 C 0 km/h
1665 05-10-2010 21:07:02 16.1 C 10.55 g/m*3 16.1 C 0 km/h
1666 05-10-2010 21:19:02 16 C 10.35 g/m*3 16 C 0 km/h
1667 05-10-2010 21:31:01 15.6 C 10.24 g/m*3 15.6 C 0 km/h
1668 05-10-2010 21:43:01 15.4 C 10.12 g/m*3 15.4 C 0 km/h
1669 05-10-2010 21:55:02 15.3 C 10.06 g/m*3 15.3 C 0 km/h
1670 05-10-2010 22:07:01 15.2 C 9.99 g/m*3 15.2 C 0 km/h
1671 05-10-2010 22:19:02 15.3 C 9.92 g/m*3 15.3 C 0 km/h
1672 05-10-2010 22:31:01 15.4 C 9.99 g/m*3 15.4 C 0 km/h
1673 05-10-2010 22:43:01 15.2 C 9.99 g/m*3 15.2 C 0 km/h
1674 05-10-2010 22:55:02 15.4 C 9.99 g/m*3 15.4 C 0 km/h
1675 05-10-2010 23:07:01 15.6 C 9.97 g/m*3 15.6 C 0 km/h
Sensor: Nr:Datum:Temp:Abs-Feuchte:Windchill:Wind:
Aussen-T/F 1676 05-10-2010 23:19:02 15.6 C 9.97 g/m*3 15.6 C 0 km/h
1677 05-10-2010 23:31:01 15.6 C 9.97 g/m*3 15.6 C 0 km/h
1678 05-10-2010 23:43:01 15.6 C 9.97 g/m*3 15.6 C 0 km/h
1679 05-10-2010 23:55:02 15.6 C 9.97 g/m*3 15.6 C 0 km/h

Legende:
   Min
   Max


Maximal/Minimal-Werte vom 22.09.2010 - 05.10.2010

Sensor Min Max Avg
Temp
(Aussen-T/F)
5.9 °C
27-09-2010  04:59:05
27.6 °C
22-09-2010  16:42:02
13.75 °C
Abs-Feuchte
(Aussen-T/F)
4.43 g/m*3
25-09-2010  15:10:02
13.7 g/m*3
05-10-2010  11:19:02
9.22 g/m*3
Windchill
(Aussen-T/F)
5.9 C
27-09-2010  04:59:05
27.6 C
22-09-2010  16:42:02
13.75 C

Die Daten stammen von einer Davis Vantage Pro 2 Wetter-Station und werden unter Linux mit der Software wview2wettercgi und aufbereitet. Alle Angaben erfolgen ohne Gewähr für ihre Vollständigkeit oder Richtigkeit.
Kontakt: Rainer Krienke krienke@uni-koblenz.de . Meine Webseiten an der Uni Koblenz oder privat.
Version: $Revision: 0.78 $